Time,TemperatureF,DewpointF,PressureIn,WindDirection,WindDirectionDegrees,WindSpeedMPH,WindSpeedGustMPH,Humidity,HourlyPrecipIn,Conditions,Clouds,dailyrainin,SoftwareType,DateUTC
2013-03-30 00:00:00,54.0,44.8,30.28,SSW,210,0.0,0.0,71,0.00,CLR,SCT,0.00,WeatherDisplay:10.37,2013-03-30 04:00:00,
2013-03-30 00:05:00,54.3,44.3,30.28,SSW,210,0.0,0.0,69,0.00,CLR,SCT,0.00,WeatherDisplay:10.37,2013-03-30 04:05:00,
2013-03-30 00:10:00,54.1,44.2,30.28,SSW,210,0.0,0.0,69,0.00,CLR,SCT,0.00,WeatherDisplay:10.37,2013-03-30 04:10:00,
2013-03-30 00:11:00,54.0,44.1,30.28,SSW,210,0.0,0.0,69,0.00,CLR,SCT,0.00,WeatherDisplay:10.37,2013-03-30 04:11:00,
2013-03-30 00:15:00,53.6,44.0,30.28,SSW,210,0.0,0.0,70,0.00,CLR,SCT,0.00,WeatherDisplay:10.37,2013-03-30 04:15:00,
2013-03-30 00:17:00,53.4,43.9,30.27,SSW,210,0.0,0.0,70,0.00,CLR,SCT,0.00,WeatherDisplay:10.37,2013-03-30 04:17:00,
2013-03-30 00:20:00,53.4,44.2,30.27,SSW,210,0.0,0.0,71,0.00,CLR,SCT,0.00,WeatherDisplay:10.37,2013-03-30 04:20:00,
2013-03-30 00:22:00,53.3,43.8,30.27,SSW,210,0.0,0.0,70,0.00,CLR,SCT,0.00,WeatherDisplay:10.37,2013-03-30 04:22:00,
2013-03-30 00:25:00,53.3,43.8,30.27,SSW,210,0.0,0.0,70,0.00,CLR,SCT,0.00,WeatherDisplay:10.37,2013-03-30 04:25:00,
2013-03-30 00:26:00,53.3,43.8,30.27,SSW,210,0.0,0.0,70,0.00,CLR,SCT,0.00,WeatherDisplay:10.37,2013-03-30 04:26:00,
2013-03-30 00:27:00,53.2,43.3,30.27,SSW,210,0.0,0.0,69,0.00,CLR,SCT,0.00,WeatherDisplay:10.37,2013-03-30 04:27:00,
2013-03-30 00:30:00,53.0,43.5,30.27,SSW,210,0.0,0.0,70,0.00,CLR,SCT,0.00,WeatherDisplay:10.37,2013-03-30 04:30:00,
2013-03-30 00:32:00,52.8,43.3,30.27,SSW,210,0.0,0.0,70,0.00,CLR,SCT,0.00,WeatherDisplay:10.37,2013-03-30 04:32:00,
2013-03-30 00:35:00,52.5,43.4,30.27,SSW,210,0.0,0.0,71,0.00,CLR,SCT,0.00,WeatherDisplay:10.37,2013-03-30 04:35:00,
2013-03-30 00:37:00,52.3,43.2,30.27,SSW,210,0.0,0.0,71,0.00,CLR,SCT,0.00,WeatherDisplay:10.37,2013-03-30 04:37:00,
2013-03-30 00:38:00,52.3,43.2,30.27,SSW,210,0.0,0.0,71,0.00,CLR,SCT,0.00,WeatherDisplay:10.37,2013-03-30 04:38:00,
2013-03-30 00:41:00,52.1,43.3,30.27,SSW,210,0.0,0.0,72,0.00,CLR,SCT,0.00,WeatherDisplay:10.37,2013-03-30 04:41:00,
2013-03-30 00:42:00,51.9,43.2,30.27,SSW,210,0.0,0.0,72,0.00,CLR,SCT,0.00,WeatherDisplay:10.37,2013-03-30 04:42:00,
2013-03-30 00:43:00,51.9,43.2,30.27,SSW,210,0.0,0.0,72,0.00,CLR,SCT,0.00,WeatherDisplay:10.37,2013-03-30 04:43:00,
2013-03-30 00:46:00,51.7,43.0,30.27,SSW,210,0.0,0.0,72,0.00,CLR,SCT,0.00,WeatherDisplay:10.37,2013-03-30 04:46:00,
2013-03-30 00:47:00,51.6,42.9,30.27,SSW,210,0.0,0.0,72,0.00,CLR,SCT,0.00,WeatherDisplay:10.37,2013-03-30 04:47:00,
2013-03-30 00:48:00,51.6,42.9,30.27,SSW,210,0.0,0.0,72,0.00,CLR,SCT,0.00,WeatherDisplay:10.37,2013-03-30 04:48:00,
2013-03-30 00:51:00,51.4,43.4,30.27,SSW,210,0.0,0.0,74,0.00,CLR,SCT,0.00,WeatherDisplay:10.37,2013-03-30 04:51:00,
2013-03-30 00:52:00,51.3,43.3,30.27,SSW,210,0.0,0.0,74,0.00,CLR,SCT,0.00,WeatherDisplay:10.37,2013-03-30 04:52:00,
2013-03-30 00:53:00,51.3,43.3,30.27,SSW,210,0.0,0.0,74,0.00,CLR,SCT,0.00,WeatherDisplay:10.37,2013-03-30 04:53:00,
2013-03-30 00:56:00,51.0,43.4,30.27,SSW,210,0.0,0.0,75,0.00,CLR,SCT,0.00,WeatherDisplay:10.37,2013-03-30 04:56:00,
2013-03-30 00:57:00,51.0,43.4,30.27,SSW,210,0.0,0.0,75,0.00,CLR,SCT,0.00,WeatherDisplay:10.37,2013-03-30 04:57:00,
2013-03-30 00:58:00,50.9,43.3,30.27,SSW,210,0.0,0.0,75,0.00,CLR,SCT,0.00,WeatherDisplay:10.37,2013-03-30 04:58:00,
2013-03-30 01:02:00,50.7,43.1,30.27,SSW,210,0.0,0.0,75,0.00,CLR,SCT,0.00,WeatherDisplay:10.37,2013-03-30 05:02:00,
2013-03-30 01:03:00,50.6,43.0,30.27,SSW,210,0.0,0.0,75,0.00,CLR,SCT,0.00,WeatherDisplay:10.37,2013-03-30 05:03:00,
2013-03-30 01:07:00,50.4,42.8,30.27,SSW,210,0.0,0.0,75,0.00,CLR,SCT,0.00,WeatherDisplay:10.37,2013-03-30 05:07:00,
2013-03-30 01:08:00,50.3,42.7,30.27,SSW,210,0.0,0.0,75,0.00,CLR,SCT,0.00,WeatherDisplay:10.37,2013-03-30 05:08:00,
2013-03-30 01:12:00,50.2,43.3,30.27,SSW,210,0.0,0.0,77,0.00,CLR,SCT,0.00,WeatherDisplay:10.37,2013-03-30 05:12:00,
2013-03-30 01:13:00,50.1,43.2,30.27,SSW,210,0.0,0.0,77,0.00,CLR,SCT,0.00,WeatherDisplay:10.37,2013-03-30 05:13:00,
2013-03-30 01:17:00,50.0,43.1,30.27,SSW,210,0.0,0.0,77,0.00,CLR,SCT,0.00,WeatherDisplay:10.37,2013-03-30 05:17:00,
2013-03-30 01:18:00,50.0,43.1,30.27,SSW,210,0.0,0.0,77,0.00,CLR,SCT,0.00,WeatherDisplay:10.37,2013-03-30 05:18:00,
2013-03-30 01:19:00,50.0,43.1,30.27,SSW,210,0.0,0.0,77,0.00,CLR,SCT,0.00,WeatherDisplay:10.37,2013-03-30 05:19:00,
2013-03-30 01:22:00,49.8,43.2,30.27,SSW,210,0.0,0.0,78,0.00,CLR,SCT,0.00,WeatherDisplay:10.37,2013-03-30 05:22:00,
2013-03-30 01:24:00,49.8,42.9,30.27,SSW,210,0.0,0.0,77,0.00,CLR,SCT,0.00,WeatherDisplay:10.37,2013-03-30 05:24:00,
2013-03-30 01:28:00,49.6,43.0,30.27,SSW,210,0.0,0.0,78,0.00,CLR,SCT,0.00,WeatherDisplay:10.37,2013-03-30 05:28:00,
2013-03-30 01:29:00,49.6,43.0,30.27,SSW,210,0.0,0.0,78,0.00,CLR,SCT,0.00,WeatherDisplay:10.37,2013-03-30 05:29:00,
2013-03-30 01:33:00,49.6,43.7,30.27,SSW,210,0.0,0.0,80,0.00,CLR,SCT,0.00,WeatherDisplay:10.37,2013-03-30 05:33:00,
2013-03-30 01:34:00,49.6,43.7,30.27,SSW,210,0.0,0.0,80,0.00,CLR,SCT,0.00,WeatherDisplay:10.37,2013-03-30 05:34:00,
2013-03-30 01:38:00,49.5,43.9,30.27,SSW,210,0.0,0.0,81,0.00,CLR,SCT,0.00,WeatherDisplay:10.37,2013-03-30 05:38:00,
2013-03-30 01:39:00,49.5,44.2,30.27,SSW,210,0.0,0.0,82,0.00,CLR,SCT,0.00,WeatherDisplay:10.37,2013-03-30 05:39:00,
2013-03-30 01:43:00,49.3,44.0,30.27,SSW,210,0.0,0.0,82,0.00,CLR,SCT,0.00,WeatherDisplay:10.37,2013-03-30 05:43:00,
2013-03-30 01:44:00,49.3,44.0,30.27,SSW,210,0.0,0.0,82,0.00,CLR,SCT,0.00,WeatherDisplay:10.37,2013-03-30 05:44:00,
2013-03-30 01:48:00,49.2,44.3,30.27,SSW,210,0.0,0.0,83,0.00,CLR,SCT,0.00,WeatherDisplay:10.37,2013-03-30 05:48:00,
2013-03-30 01:49:00,49.1,44.2,30.27,SSW,210,0.0,0.0,83,0.00,CLR,SCT,0.00,WeatherDisplay:10.37,2013-03-30 05:49:00,
2013-03-30 01:54:00,49.1,44.8,30.27,SSW,210,0.0,0.0,85,0.00,CLR,SCT,0.00,WeatherDisplay:10.37,2013-03-30 05:54:00,
2013-03-30 01:55:00,49.1,44.8,30.27,SSW,210,0.0,0.0,85,0.00,CLR,SCT,0.00,WeatherDisplay:10.37,2013-03-30 05:55:00,
2013-03-30 01:59:00,49.1,44.5,30.27,SSW,210,0.0,0.0,84,0.00,CLR,SCT,0.00,WeatherDisplay:10.37,2013-03-30 05:59:00,
2013-03-30 02:00:00,49.0,44.1,30.27,SSW,210,0.0,0.0,83,0.00,CLR,SCT,0.00,WeatherDisplay:10.37,2013-03-30 06:00:00,
2013-03-30 02:04:00,48.9,44.0,30.27,SSW,210,0.0,0.0,83,0.00,CLR,SCT,0.00,WeatherDisplay:10.37,2013-03-30 06:04:00,
2013-03-30 02:05:00,48.9,44.0,30.27,SSW,210,0.0,0.0,83,0.00,CLR,SCT,0.00,WeatherDisplay:10.37,2013-03-30 06:05:00,
2013-03-30 02:09:00,48.9,44.0,30.27,SSW,210,0.0,0.0,83,0.00,CLR,SCT,0.00,WeatherDisplay:10.37,2013-03-30 06:09:00,
2013-03-30 02:10:00,48.8,43.9,30.27,SSW,210,0.0,0.0,83,0.00,CLR,SCT,0.00,WeatherDisplay:10.37,2013-03-30 06:10:00,
2013-03-30 02:14:00,48.8,43.9,30.27,SSW,210,0.0,0.0,83,0.00,CLR,SCT,0.00,WeatherDisplay:10.37,2013-03-30 06:14:00,
2013-03-30 02:15:00,48.8,43.9,30.27,SSW,210,0.0,0.0,83,0.00,CLR,SCT,0.00,WeatherDisplay:10.37,2013-03-30 06:15:00,
2013-03-30 02:19:00,48.7,43.5,30.27,SSW,210,0.0,0.0,82,0.00,CLR,SCT,0.00,WeatherDisplay:10.37,2013-03-30 06:19:00,
2013-03-30 02:20:00,48.7,43.5,30.27,SSW,210,0.0,0.0,82,0.00,CLR,SCT,0.00,WeatherDisplay:10.37,2013-03-30 06:20:00,
2013-03-30 02:24:00,48.6,43.4,30.27,SSW,210,0.0,0.0,82,0.00,CLR,SCT,0.00,WeatherDisplay:10.37,2013-03-30 06:24:00,
2013-03-30 02:25:00,48.6,43.4,30.27,SSW,210,0.0,0.0,82,0.00,CLR,SCT,0.00,WeatherDisplay:10.37,2013-03-30 06:25:00,
2013-03-30 02:26:00,48.6,43.4,30.27,SSW,210,0.0,0.0,82,0.00,CLR,SCT,0.00,WeatherDisplay:10.37,2013-03-30 06:26:00,
2013-03-30 02:30:00,48.7,44.4,30.27,SSW,210,0.0,0.0,85,0.00,CLR,SCT,0.00,WeatherDisplay:10.37,2013-03-30 06:30:00,
2013-03-30 02:31:00,48.8,44.8,30.27,SSW,210,0.0,0.0,86,0.00,CLR,SCT,0.00,WeatherDisplay:10.37,2013-03-30 06:31:00,
2013-03-30 02:35:00,48.8,44.5,30.27,SSW,210,0.0,0.0,85,0.00,CLR,SCT,0.00,WeatherDisplay:10.37,2013-03-30 06:35:00,
2013-03-30 02:36:00,48.8,44.5,30.27,SSW,210,0.0,0.0,85,0.00,CLR,SCT,0.00,WeatherDisplay:10.37,2013-03-30 06:36:00,
2013-03-30 02:40:00,48.6,44.0,30.27,SSW,210,0.0,0.0,84,0.00,CLR,SCT,0.00,WeatherDisplay:10.37,2013-03-30 06:40:00,
2013-03-30 02:41:00,48.5,43.9,30.27,SSW,210,0.0,0.0,84,0.00,CLR,SCT,0.00,WeatherDisplay:10.37,2013-03-30 06:41:00,
2013-03-30 02:42:00,48.5,43.9,30.27,SSW,210,0.0,0.0,84,0.00,CLR,SCT,0.00,WeatherDisplay:10.37,2013-03-30 06:42:00,
2013-03-30 02:45:00,48.3,43.7,30.26,SSW,210,0.0,0.0,84,0.00,CLR,SCT,0.00,WeatherDisplay:10.37,2013-03-30 06:45:00,
2013-03-30 02:46:00,48.3,43.7,30.26,SSW,210,0.0,0.0,84,0.00,CLR,SCT,0.00,WeatherDisplay:10.37,2013-03-30 06:46:00,
2013-03-30 02:47:00,48.3,43.7,30.26,SSW,210,0.0,0.0,84,0.00,CLR,SCT,0.00,WeatherDisplay:10.37,2013-03-30 06:47:00,
2013-03-30 02:50:00,48.2,43.9,30.26,SSW,210,0.0,0.0,85,0.00,CLR,SCT,0.00,WeatherDisplay:10.37,2013-03-30 06:50:00,
2013-03-30 02:51:00,48.1,43.8,30.26,SSW,210,0.0,0.0,85,0.00,CLR,SCT,0.00,WeatherDisplay:10.37,2013-03-30 06:51:00,
2013-03-30 02:52:00,48.1,43.8,30.26,SSW,210,0.0,0.0,85,0.00,CLR,SCT,0.00,WeatherDisplay:10.37,2013-03-30 06:52:00,
2013-03-30 02:53:00,48.1,43.8,30.26,SSW,210,0.0,0.0,85,0.00,CLR,SCT,0.00,WeatherDisplay:10.37,2013-03-30 06:53:00,
2013-03-30 02:55:00,48.1,44.1,30.26,SSW,210,0.0,0.0,86,0.00,CLR,SCT,0.00,WeatherDisplay:10.37,2013-03-30 06:55:00,
2013-03-30 02:56:00,48.0,44.0,30.26,SSW,210,0.0,0.0,86,0.00,CLR,SCT,0.00,WeatherDisplay:10.37,2013-03-30 06:56:00,
2013-03-30 02:57:00,48.0,44.0,30.26,SSW,210,0.0,0.0,86,0.00,CLR,SCT,0.00,WeatherDisplay:10.37,2013-03-30 06:57:00,
2013-03-30 02:58:00,48.0,44.0,30.26,SSW,210,0.0,0.0,86,0.00,CLR,SCT,0.00,WeatherDisplay:10.37,2013-03-30 06:58:00,
2013-03-30 03:00:00,47.9,43.9,30.26,SSW,210,0.0,0.0,86,0.00,CLR,SCT,0.00,WeatherDisplay:10.37,2013-03-30 07:00:00,
2013-03-30 03:01:00,47.9,44.2,30.26,SSW,210,0.0,0.0,87,0.00,CLR,SCT,0.00,WeatherDisplay:10.37,2013-03-30 07:01:00,
2013-03-30 03:02:00,47.9,44.2,30.26,SSW,210,0.0,0.0,87,0.00,CLR,SCT,0.00,WeatherDisplay:10.37,2013-03-30 07:02:00,
2013-03-30 03:03:00,47.9,44.2,30.26,SSW,210,0.0,0.0,87,0.00,CLR,SCT,0.00,WeatherDisplay:10.37,2013-03-30 07:03:00,
2013-03-30 03:06:00,47.8,44.1,30.26,SSW,210,0.0,0.0,87,0.00,CLR,SCT,0.00,WeatherDisplay:10.37,2013-03-30 07:06:00,
2013-03-30 03:07:00,47.7,44.0,30.26,SSW,210,0.0,0.0,87,0.00,CLR,SCT,0.00,WeatherDisplay:10.37,2013-03-30 07:07:00,
2013-03-30 03:08:00,47.7,44.0,30.26,SSW,210,0.0,0.0,87,0.00,CLR,SCT,0.00,WeatherDisplay:10.37,2013-03-30 07:08:00,
2013-03-30 03:11:00,47.5,43.8,30.26,SSW,210,0.0,0.0,87,0.00,CLR,SCT,0.00,WeatherDisplay:10.37,2013-03-30 07:11:00,
2013-03-30 03:12:00,47.5,43.8,30.25,SSW,210,0.0,0.0,87,0.00,CLR,SCT,0.00,WeatherDisplay:10.37,2013-03-30 07:12:00,
2013-03-30 03:13:00,47.5,43.8,30.26,SSW,210,0.0,0.0,87,0.00,CLR,SCT,0.00,WeatherDisplay:10.37,2013-03-30 07:13:00,
2013-03-30 03:16:00,47.7,44.3,30.26,SSW,210,0.0,0.0,88,0.00,CLR,SCT,0.00,WeatherDisplay:10.37,2013-03-30 07:16:00,
2013-03-30 03:17:00,47.7,44.3,30.26,SSW,210,0.0,0.0,88,0.00,CLR,SCT,0.00,WeatherDisplay:10.37,2013-03-30 07:17:00,
2013-03-30 03:18:00,47.7,44.3,30.26,SSW,210,0.0,0.0,88,0.00,CLR,SCT,0.00,WeatherDisplay:10.37,2013-03-30 07:18:00,
2013-03-30 03:19:00,47.7,44.3,30.26,SSW,210,0.0,0.0,88,0.00,CLR,SCT,0.00,WeatherDisplay:10.37,2013-03-30 07:19:00,
2013-03-30 03:22:00,47.7,44.0,30.26,SSW,210,0.0,0.0,87,0.00,CLR,SCT,0.00,WeatherDisplay:10.37,2013-03-30 07:22:00,
2013-03-30 03:23:00,47.7,44.0,30.26,SSW,210,0.0,0.0,87,0.00,CLR,SCT,0.00,WeatherDisplay:10.37,2013-03-30 07:23:00,
2013-03-30 03:24:00,47.7,44.0,30.26,SSW,210,0.0,0.0,87,0.00,CLR,SCT,0.00,WeatherDisplay:10.37,2013-03-30 07:24:00,
2013-03-30 03:27:00,47.6,43.6,30.26,SSW,210,0.0,0.0,86,0.00,CLR,SCT,0.00,WeatherDisplay:10.37,2013-03-30 07:27:00,
2013-03-30 03:28:00,47.6,43.6,30.25,SSW,210,0.0,0.0,86,0.00,CLR,SCT,0.00,WeatherDisplay:10.37,2013-03-30 07:28:00,
2013-03-30 03:29:00,47.5,43.5,30.25,SSW,210,0.0,0.0,86,0.00,CLR,SCT,0.00,WeatherDisplay:10.37,2013-03-30 07:29:00,
2013-03-30 03:32:00,47.5,43.5,30.25,SSW,210,0.0,0.0,86,0.00,CLR,SCT,0.00,WeatherDisplay:10.37,2013-03-30 07:32:00,
2013-03-30 03:33:00,47.5,43.5,30.25,SSW,210,0.0,0.0,86,0.00,CLR,SCT,0.00,WeatherDisplay:10.37,2013-03-30 07:33:00,
2013-03-30 03:34:00,47.5,43.5,30.25,SSW,210,0.0,0.0,86,0.00,CLR,SCT,0.00,WeatherDisplay:10.37,2013-03-30 07:34:00,
2013-03-30 03:37:00,47.3,43.6,30.25,SSW,210,0.0,0.0,87,0.00,CLR,SCT,0.00,WeatherDisplay:10.37,2013-03-30 07:37:00,
2013-03-30 03:38:00,47.3,43.6,30.25,SSW,210,0.0,0.0,87,0.00,CLR,SCT,0.00,WeatherDisplay:10.37,2013-03-30 07:38:00,
2013-03-30 03:39:00,47.4,43.7,30.25,SSW,210,0.0,0.0,87,0.00,CLR,SCT,0.00,WeatherDisplay:10.37,2013-03-30 07:39:00,
2013-03-30 03:42:00,47.4,44.0,30.25,SSW,210,0.0,0.0,88,0.00,CLR,SCT,0.00,WeatherDisplay:10.37,2013-03-30 07:42:00,
2013-03-30 03:43:00,47.5,44.1,30.25,SSW,210,0.0,0.0,88,0.00,CLR,SCT,0.00,WeatherDisplay:10.37,2013-03-30 07:43:00,
2013-03-30 03:44:00,47.4,44.0,30.25,SSW,210,0.0,0.0,88,0.00,CLR,SCT,0.00,WeatherDisplay:10.37,2013-03-30 07:44:00,
2013-03-30 03:47:00,47.3,43.9,30.25,SSW,210,0.0,0.0,88,0.00,CLR,SCT,0.00,WeatherDisplay:10.37,2013-03-30 07:47:00,
2013-03-30 03:48:00,47.3,43.9,30.25,SSW,210,0.0,0.0,88,0.00,CLR,SCT,0.00,WeatherDisplay:10.37,2013-03-30 07:48:00,
2013-03-30 03:49:00,47.2,43.8,30.25,SSW,210,0.0,0.0,88,0.00,CLR,SCT,0.00,WeatherDisplay:10.37,2013-03-30 07:49:00,
2013-03-30 03:52:00,47.1,43.7,30.25,SSW,210,0.0,0.0,88,0.00,CLR,SCT,0.00,WeatherDisplay:10.37,2013-03-30 07:52:00,
2013-03-30 03:53:00,47.1,43.7,30.25,SSW,210,0.0,0.0,88,0.00,CLR,SCT,0.00,WeatherDisplay:10.37,2013-03-30 07:53:00,
2013-03-30 03:54:00,47.1,44.0,30.26,SSW,210,0.0,0.0,89,0.00,CLR,SCT,0.00,WeatherDisplay:10.37,2013-03-30 07:54:00,
2013-03-30 03:55:00,47.1,44.0,30.26,SSW,210,0.0,0.0,89,0.00,CLR,SCT,0.00,WeatherDisplay:10.37,2013-03-30 07:55:00,
2013-03-30 03:58:00,47.0,43.9,30.25,SSW,210,0.0,0.0,89,0.00,CLR,SCT,0.00,WeatherDisplay:10.37,2013-03-30 07:58:00,
2013-03-30 04:00:00,47.0,43.9,30.25,SSW,210,0.0,0.0,89,0.00,CLR,SCT,0.00,WeatherDisplay:10.37,2013-03-30 08:00:00,
2013-03-30 04:03:00,47.1,44.3,30.25,SSW,210,0.0,0.0,90,0.00,CLR,SCT,0.00,WeatherDisplay:10.37,2013-03-30 08:03:00,
2013-03-30 04:05:00,47.1,44.3,30.25,SSW,210,0.0,0.0,90,0.00,CLR,SCT,0.00,WeatherDisplay:10.37,2013-03-30 08:05:00,
2013-03-30 04:08:00,47.0,44.2,30.25,SSW,210,0.0,0.0,90,0.00,CLR,SCT,0.00,WeatherDisplay:10.37,2013-03-30 08:08:00,
2013-03-30 04:10:00,47.0,44.2,30.25,SSW,210,0.0,0.0,90,0.00,CLR,SCT,0.00,WeatherDisplay:10.37,2013-03-30 08:10:00,
2013-03-30 04:13:00,46.9,44.1,30.25,SSW,210,0.0,0.0,90,0.00,CLR,SCT,0.00,WeatherDisplay:10.37,2013-03-30 08:13:00,
2013-03-30 04:14:00,46.9,44.4,30.25,SSW,210,0.0,0.0,91,0.00,CLR,SCT,0.00,WeatherDisplay:10.37,2013-03-30 08:14:00,
2013-03-30 04:15:00,46.9,44.4,30.25,SSW,210,0.0,0.0,91,0.00,CLR,SCT,0.00,WeatherDisplay:10.37,2013-03-30 08:15:00,
2013-03-30 04:18:00,46.8,44.0,30.25,SSW,210,0.0,0.0,90,0.00,CLR,SCT,0.00,WeatherDisplay:10.37,2013-03-30 08:18:00,
2013-03-30 04:19:00,46.8,44.0,30.25,SSW,210,0.0,0.0,90,0.00,CLR,SCT,0.00,WeatherDisplay:10.37,2013-03-30 08:19:00,
2013-03-30 04:20:00,46.8,44.0,30.25,SSW,210,0.0,0.0,90,0.00,CLR,SCT,0.00,WeatherDisplay:10.37,2013-03-30 08:20:00,
2013-03-30 04:21:00,46.8,44.0,30.25,SSW,210,0.0,0.0,90,0.00,CLR,SCT,0.00,WeatherDisplay:10.37,2013-03-30 08:21:00,
2013-03-30 04:23:00,46.7,44.2,30.25,SSW,210,0.0,0.0,91,0.00,CLR,SCT,0.00,WeatherDisplay:10.37,2013-03-30 08:23:00,
2013-03-30 04:24:00,46.6,44.1,30.25,SSW,210,0.0,0.0,91,0.00,CLR,SCT,0.00,WeatherDisplay:10.37,2013-03-30 08:24:00,
2013-03-30 04:25:00,46.6,44.1,30.25,SSW,210,0.0,0.0,91,0.00,CLR,SCT,0.00,WeatherDisplay:10.37,2013-03-30 08:25:00,
2013-03-30 04:26:00,46.5,44.0,30.25,SSW,210,0.0,0.0,91,0.00,CLR,SCT,0.00,WeatherDisplay:10.37,2013-03-30 08:26:00,
2013-03-30 04:28:00,46.5,44.0,30.25,SSW,210,0.0,0.0,91,0.00,CLR,SCT,0.00,WeatherDisplay:10.37,2013-03-30 08:28:00,
2013-03-30 04:29:00,46.4,43.9,30.25,SSW,210,0.0,0.0,91,0.00,CLR,SCT,0.00,WeatherDisplay:10.37,2013-03-30 08:29:00,
2013-03-30 04:31:00,46.4,43.9,30.25,SSW,210,0.0,0.0,91,0.00,CLR,SCT,0.00,WeatherDisplay:10.37,2013-03-30 08:31:00,
2013-03-30 04:32:00,46.4,43.9,30.25,SSW,210,0.0,0.0,91,0.00,CLR,SCT,0.00,WeatherDisplay:10.37,2013-03-30 08:32:00,
2013-03-30 04:33:00,46.4,43.9,30.25,SSW,210,0.0,0.0,91,0.00,CLR,SCT,0.00,WeatherDisplay:10.37,2013-03-30 08:33:00,
2013-03-30 04:35:00,46.4,43.9,30.25,SSW,210,0.0,0.0,91,0.00,CLR,SCT,0.00,WeatherDisplay:10.37,2013-03-30 08:35:00,
2013-03-30 04:36:00,46.4,43.9,30.25,SSW,210,0.0,0.0,91,0.00,CLR,SCT,0.00,WeatherDisplay:10.37,2013-03-30 08:36:00,
2013-03-30 04:37:00,46.4,43.9,30.25,SSW,210,0.0,0.0,91,0.00,CLR,SCT,0.00,WeatherDisplay:10.37,2013-03-30 08:37:00,
2013-03-30 04:38:00,46.3,43.8,30.25,SSW,210,0.0,0.0,91,0.00,CLR,SCT,0.00,WeatherDisplay:10.37,2013-03-30 08:38:00,
2013-03-30 04:40:00,46.3,43.8,30.25,SSW,210,0.0,0.0,91,0.00,CLR,SCT,0.00,WeatherDisplay:10.37,2013-03-30 08:40:00,
2013-03-30 04:42:00,46.3,43.8,30.25,SSW,210,0.0,0.0,91,0.00,CLR,SCT,0.00,WeatherDisplay:10.37,2013-03-30 08:42:00,
2013-03-30 04:43:00,46.3,43.8,30.25,SSW,210,0.0,0.0,91,0.00,CLR,SCT,0.00,WeatherDisplay:10.37,2013-03-30 08:43:00,
2013-03-30 04:45:00,46.2,43.7,30.25,SSW,210,0.0,0.0,91,0.00,CLR,SCT,0.00,WeatherDisplay:10.37,2013-03-30 08:45:00,
2013-03-30 04:47:00,46.2,43.7,30.25,SSW,210,0.0,0.0,91,0.00,CLR,SCT,0.00,WeatherDisplay:10.37,2013-03-30 08:47:00,
2013-03-30 04:48:00,46.2,44.0,30.24,SSW,210,0.0,0.0,92,0.00,CLR,SCT,0.00,WeatherDisplay:10.37,2013-03-30 08:48:00,
2013-03-30 04:50:00,46.2,44.0,30.24,SSW,210,0.0,0.0,92,0.00,CLR,SCT,0.00,WeatherDisplay:10.37,2013-03-30 08:50:00,
2013-03-30 04:53:00,46.3,44.1,30.24,SSW,210,0.0,0.0,92,0.00,CLR,SCT,0.00,WeatherDisplay:10.37,2013-03-30 08:53:00,
2013-03-30 04:54:00,46.3,44.1,30.24,SSW,210,0.0,0.0,92,0.00,CLR,SCT,0.00,WeatherDisplay:10.37,2013-03-30 08:54:00,
2013-03-30 04:55:00,46.3,44.1,30.24,SSW,210,0.0,0.0,92,0.00,CLR,SCT,0.00,WeatherDisplay:10.37,2013-03-30 08:55:00,
2013-03-30 04:58:00,46.3,44.1,30.24,SSW,210,0.0,0.0,92,0.00,CLR,SCT,0.00,WeatherDisplay:10.37,2013-03-30 08:58:00,
2013-03-30 04:59:00,46.3,44.1,30.24,SSW,210,0.0,0.0,92,0.00,CLR,SCT,0.00,WeatherDisplay:10.37,2013-03-30 08:59:00,
2013-03-30 05:00:00,46.3,44.1,30.24,SSW,210,0.0,0.0,92,0.00,CLR,SCT,0.00,WeatherDisplay:10.37,2013-03-30 09:00:00,
2013-03-30 05:03:00,46.3,44.1,30.24,SSW,210,0.0,0.0,92,0.00,CLR,SCT,0.00,WeatherDisplay:10.37,2013-03-30 09:03:00,
2013-03-30 05:05:00,46.3,44.1,30.24,SSW,210,0.0,0.0,92,0.00,CLR,SCT,0.00,WeatherDisplay:10.37,2013-03-30 09:05:00,
2013-03-30 05:08:00,46.3,44.1,30.24,SSW,210,0.0,0.0,92,0.00,CLR,SCT,0.00,WeatherDisplay:10.37,2013-03-30 09:08:00,
2013-03-30 05:10:00,46.3,44.1,30.24,SSW,210,0.0,0.0,92,0.00,CLR,SCT,0.00,WeatherDisplay:10.37,2013-03-30 09:10:00,
2013-03-30 05:13:00,46.3,44.1,30.24,SSW,210,0.0,0.0,92,0.00,CLR,SCT,0.00,WeatherDisplay:10.37,2013-03-30 09:13:00,
2013-03-30 05:15:00,46.1,43.9,30.24,SSW,210,0.0,0.0,92,0.00,CLR,SCT,0.00,WeatherDisplay:10.37,2013-03-30 09:15:00,
2013-03-30 05:18:00,46.1,43.9,30.24,SSW,210,0.0,0.0,92,0.00,CLR,SCT,0.00,WeatherDisplay:10.37,2013-03-30 09:18:00,
2013-03-30 05:20:00,46.0,43.8,30.24,SSW,210,0.0,0.0,92,0.00,CLR,SCT,0.00,WeatherDisplay:10.37,2013-03-30 09:20:00,
2013-03-30 05:23:00,46.0,43.8,30.24,SSW,210,0.0,0.0,92,0.00,CLR,SCT,0.00,WeatherDisplay:10.37,2013-03-30 09:23:00,
2013-03-30 05:24:00,46.0,43.8,30.24,SSW,210,0.0,0.0,92,0.00,CLR,SCT,0.00,WeatherDisplay:10.37,2013-03-30 09:24:00,
2013-03-30 05:25:00,45.9,44.0,30.24,SSW,210,0.0,0.0,93,0.00,CLR,SCT,0.00,WeatherDisplay:10.37,2013-03-30 09:25:00,
2013-03-30 05:27:00,45.9,44.0,30.24,SSW,210,0.0,0.0,93,0.00,CLR,SCT,0.00,WeatherDisplay:10.37,2013-03-30 09:27:00,
2013-03-30 05:28:00,45.9,44.0,30.24,SSW,210,0.0,0.0,93,0.00,CLR,SCT,0.00,WeatherDisplay:10.37,2013-03-30 09:28:00,
2013-03-30 05:29:00,45.8,43.9,30.24,SSW,210,0.0,0.0,93,0.00,CLR,SCT,0.00,WeatherDisplay:10.37,2013-03-30 09:29:00,
2013-03-30 05:30:00,45.8,43.9,30.23,SSW,210,0.0,0.0,93,0.00,CLR,SCT,0.00,WeatherDisplay:10.37,2013-03-30 09:30:00,
2013-03-30 05:32:00,45.8,43.9,30.23,SSW,210,0.0,0.0,93,0.00,CLR,SCT,0.00,WeatherDisplay:10.37,2013-03-30 09:32:00,
2013-03-30 05:34:00,45.8,43.9,30.23,SSW,210,0.0,0.0,93,0.00,CLR,SCT,0.00,WeatherDisplay:10.37,2013-03-30 09:34:00,
2013-03-30 05:35:00,45.7,43.8,30.23,SSW,210,0.0,0.0,93,0.00,CLR,SCT,0.00,WeatherDisplay:10.37,2013-03-30 09:35:00,
2013-03-30 05:37:00,45.7,43.8,30.23,SSW,210,0.0,0.0,93,0.00,CLR,SCT,0.00,WeatherDisplay:10.37,2013-03-30 09:37:00,
2013-03-30 05:39:00,45.7,43.8,30.23,SSW,210,0.0,0.0,93,0.00,CLR,SCT,0.00,WeatherDisplay:10.37,2013-03-30 09:39:00,
2013-03-30 05:41:00,45.7,43.8,30.23,SSW,210,0.0,0.0,93,0.00,CLR,SCT,0.00,WeatherDisplay:10.37,2013-03-30 09:41:00,
2013-03-30 05:42:00,45.7,43.8,30.23,SSW,210,0.0,0.0,93,0.00,CLR,SCT,0.00,WeatherDisplay:10.37,2013-03-30 09:42:00,
2013-03-30 05:44:00,45.7,43.8,30.23,SSW,210,0.0,0.0,93,0.00,CLR,SCT,0.00,WeatherDisplay:10.37,2013-03-30 09:44:00,
2013-03-30 05:46:00,45.7,43.8,30.23,SSW,210,0.0,0.0,93,0.00,CLR,SCT,0.00,WeatherDisplay:10.37,2013-03-30 09:46:00,
2013-03-30 05:47:00,45.8,43.9,30.23,SSW,210,0.0,0.0,93,0.00,CLR,SCT,0.00,WeatherDisplay:10.37,2013-03-30 09:47:00,
2013-03-30 05:49:00,45.8,43.9,30.23,SSW,210,0.0,0.0,93,0.00,CLR,SCT,0.00,WeatherDisplay:10.37,2013-03-30 09:49:00,
2013-03-30 05:51:00,45.9,44.3,30.23,SSW,210,0.0,0.0,94,0.00,CLR,SCT,0.00,WeatherDisplay:10.37,2013-03-30 09:51:00,
2013-03-30 05:53:00,46.0,44.4,30.23,SSW,210,0.0,0.0,94,0.00,CLR,SCT,0.00,WeatherDisplay:10.37,2013-03-30 09:53:00,
2013-03-30 05:54:00,46.0,44.4,30.23,SSW,210,0.0,0.0,94,0.00,CLR,SCT,0.00,WeatherDisplay:10.37,2013-03-30 09:54:00,
2013-03-30 05:55:00,46.0,44.4,30.23,SSW,210,0.0,0.0,94,0.00,CLR,SCT,0.00,WeatherDisplay:10.37,2013-03-30 09:55:00,
2013-03-30 05:57:00,46.0,44.4,30.23,SSW,210,0.0,0.0,94,0.00,CLR,SCT,0.00,WeatherDisplay:10.37,2013-03-30 09:57:00,
2013-03-30 05:58:00,46.0,44.4,30.23,SSW,210,0.0,0.0,94,0.00,CLR,SCT,0.00,WeatherDisplay:10.37,2013-03-30 09:58:00,
2013-03-30 05:59:00,45.9,44.3,30.23,SSW,210,0.0,0.0,94,0.00,CLR,SCT,0.00,WeatherDisplay:10.37,2013-03-30 09:59:00,
2013-03-30 06:00:00,45.9,44.3,30.23,SSW,210,0.0,0.0,94,0.00,CLR,SCT,0.00,WeatherDisplay:10.37,2013-03-30 10:00:00,
2013-03-30 06:03:00,45.9,44.3,30.23,SSW,210,0.0,0.0,94,0.00,CLR,SCT,0.00,WeatherDisplay:10.37,2013-03-30 10:03:00,
2013-03-30 06:04:00,45.9,44.3,30.23,SSW,210,0.0,0.0,94,0.00,CLR,SCT,0.00,WeatherDisplay:10.37,2013-03-30 10:04:00,
2013-03-30 06:05:00,45.9,44.3,30.23,SSW,210,0.0,0.0,94,0.00,CLR,SCT,0.00,WeatherDisplay:10.37,2013-03-30 10:05:00,
2013-03-30 06:08:00,45.8,44.2,30.23,SSW,210,0.0,0.0,94,0.00,CLR,SCT,0.00,WeatherDisplay:10.37,2013-03-30 10:08:00,
2013-03-30 06:09:00,45.9,44.3,30.23,SSW,210,0.0,0.0,94,0.00,CLR,SCT,0.00,WeatherDisplay:10.37,2013-03-30 10:09:00,
2013-03-30 06:10:00,45.9,44.3,30.23,SSW,210,0.0,0.0,94,0.00,CLR,SCT,0.00,WeatherDisplay:10.37,2013-03-30 10:10:00,
2013-03-30 06:13:00,45.9,44.3,30.23,SSW,210,0.0,0.0,94,0.00,CLR,SCT,0.00,WeatherDisplay:10.37,2013-03-30 10:13:00,
2013-03-30 06:14:00,45.8,44.2,30.23,SSW,210,0.0,0.0,94,0.00,CLR,SCT,0.00,WeatherDisplay:10.37,2013-03-30 10:14:00,
2013-03-30 06:15:00,45.8,44.2,30.23,SSW,210,0.0,0.0,94,0.00,CLR,SCT,0.00,WeatherDisplay:10.37,2013-03-30 10:15:00,
2013-03-30 06:18:00,45.7,44.1,30.23,SSW,210,0.0,0.0,94,0.00,CLR,SCT,0.00,WeatherDisplay:10.37,2013-03-30 10:18:00,
2013-03-30 06:20:00,45.7,44.1,30.23,SSW,210,0.0,0.0,94,0.00,CLR,SCT,0.00,WeatherDisplay:10.37,2013-03-30 10:20:00,
2013-03-30 06:23:00,45.7,44.1,30.23,SSW,210,0.0,0.0,94,0.00,CLR,SCT,0.00,WeatherDisplay:10.37,2013-03-30 10:23:00,
2013-03-30 06:24:00,45.6,44.0,30.23,SSW,210,0.0,0.0,94,0.00,CLR,SCT,0.00,WeatherDisplay:10.37,2013-03-30 10:24:00,
2013-03-30 06:25:00,45.6,44.0,30.23,SSW,210,0.0,0.0,94,0.00,CLR,SCT,0.00,WeatherDisplay:10.37,2013-03-30 10:25:00,
2013-03-30 06:29:00,45.7,44.1,30.24,SSW,210,0.0,0.0,94,0.00,CLR,SCT,0.00,WeatherDisplay:10.37,2013-03-30 10:29:00,
2013-03-30 06:30:00,45.7,44.1,30.24,SSW,210,0.0,0.0,94,0.00,CLR,SCT,0.00,WeatherDisplay:10.37,2013-03-30 10:30:00,
2013-03-30 06:34:00,45.7,44.1,30.23,SSW,210,0.0,0.0,94,0.00,CLR,SCT,0.00,WeatherDisplay:10.37,2013-03-30 10:34:00,
2013-03-30 06:35:00,45.7,44.1,30.24,SSW,210,0.0,0.0,94,0.00,CLR,SCT,0.00,WeatherDisplay:10.37,2013-03-30 10:35:00,
2013-03-30 06:39:00,45.7,44.1,30.24,SSW,210,0.0,0.0,94,0.00,CLR,SCT,0.00,WeatherDisplay:10.37,2013-03-30 10:39:00,
2013-03-30 06:40:00,45.7,44.1,30.24,SSW,210,0.0,0.0,94,0.00,CLR,SCT,0.00,WeatherDisplay:10.37,2013-03-30 10:40:00,
2013-03-30 06:41:00,45.7,44.1,30.24,SSW,210,0.0,0.0,94,0.00,CLR,SCT,0.00,WeatherDisplay:10.37,2013-03-30 10:41:00,
2013-03-30 06:44:00,45.6,44.0,30.24,SSW,210,0.0,0.0,94,0.00,CLR,SCT,0.00,WeatherDisplay:10.37,2013-03-30 10:44:00,
2013-03-30 06:46:00,45.6,44.0,30.24,SSW,210,0.0,0.0,94,0.00,CLR,SCT,0.00,WeatherDisplay:10.37,2013-03-30 10:46:00,
2013-03-30 06:49:00,45.5,43.9,30.24,SSW,210,0.0,0.0,94,0.00,CLR,SCT,0.00,WeatherDisplay:10.37,2013-03-30 10:49:00,
2013-03-30 06:51:00,45.5,43.9,30.24,SSW,210,0.0,0.0,94,0.00,CLR,SCT,0.00,WeatherDisplay:10.37,2013-03-30 10:51:00,
2013-03-30 06:54:00,45.4,43.8,30.24,SSW,210,0.0,0.0,94,0.00,CLR,SCT,0.00,WeatherDisplay:10.37,2013-03-30 10:54:00,
2013-03-30 06:56:00,45.4,43.8,30.24,SSW,210,0.0,0.0,94,0.00,CLR,SCT,0.00,WeatherDisplay:10.37,2013-03-30 10:56:00,
2013-03-30 06:59:00,45.3,43.7,30.24,SSW,210,0.0,0.0,94,0.00,CLR,SCT,0.00,WeatherDisplay:10.37,2013-03-30 10:59:00,
2013-03-30 07:01:00,45.2,43.6,30.24,SSW,210,0.0,0.0,94,0.00,CLR,SCT,0.00,WeatherDisplay:10.37,2013-03-30 11:01:00,
2013-03-30 07:02:00,45.2,43.6,30.24,SSW,210,0.0,0.0,94,0.00,CLR,SCT,0.00,WeatherDisplay:10.37,2013-03-30 11:02:00,
2013-03-30 07:04:00,45.2,43.6,30.25,SSW,210,0.0,0.0,94,0.00,CLR,SCT,0.00,WeatherDisplay:10.37,2013-03-30 11:04:00,
2013-03-30 07:06:00,45.2,43.6,30.25,SSW,210,0.0,0.0,94,0.00,CLR,SCT,0.00,WeatherDisplay:10.37,2013-03-30 11:06:00,
2013-03-30 07:08:00,45.3,43.7,30.25,SSW,210,0.0,0.0,94,0.00,CLR,SCT,0.00,WeatherDisplay:10.37,2013-03-30 11:08:00,
2013-03-30 07:09:00,45.3,43.7,30.25,SSW,210,0.0,0.0,94,0.00,CLR,SCT,0.00,WeatherDisplay:10.37,2013-03-30 11:09:00,
2013-03-30 07:12:00,45.3,43.7,30.25,SSW,210,0.0,0.0,94,0.00,CLR,SCT,0.00,WeatherDisplay:10.37,2013-03-30 11:12:00,
2013-03-30 07:13:00,45.2,43.6,30.25,SSW,210,0.0,0.0,94,0.00,CLR,SCT,0.00,WeatherDisplay:10.37,2013-03-30 11:13:00,
2013-03-30 07:15:00,45.2,43.6,30.25,SSW,210,0.0,0.0,94,0.00,CLR,SCT,0.00,WeatherDisplay:10.37,2013-03-30 11:15:00,
2013-03-30 07:17:00,45.3,44.0,30.25,SSW,210,0.0,0.0,95,0.00,CLR,SCT,0.00,WeatherDisplay:10.37,2013-03-30 11:17:00,
2013-03-30 07:18:00,45.3,44.0,30.25,SSW,210,0.0,0.0,95,0.00,CLR,SCT,0.00,WeatherDisplay:10.37,2013-03-30 11:18:00,
2013-03-30 07:20:00,45.4,44.1,30.25,SSW,210,0.0,0.0,95,0.00,CLR,SCT,0.00,WeatherDisplay:10.37,2013-03-30 11:20:00,
2013-03-30 07:22:00,45.5,44.2,30.25,SSW,210,0.0,0.0,95,0.00,CLR,SCT,0.00,WeatherDisplay:10.37,2013-03-30 11:22:00,
2013-03-30 07:24:00,45.5,44.2,30.25,SSW,210,0.0,0.0,95,0.00,CLR,SCT,0.00,WeatherDisplay:10.37,2013-03-30 11:24:00,
2013-03-30 07:25:00,45.5,44.2,30.26,SSW,210,0.0,0.0,95,0.00,CLR,SCT,0.00,WeatherDisplay:10.37,2013-03-30 11:25:00,
2013-03-30 07:27:00,45.5,44.2,30.26,SSW,210,0.0,0.0,95,0.00,CLR,SCT,0.00,WeatherDisplay:10.37,2013-03-30 11:27:00,
2013-03-30 07:29:00,45.5,44.2,30.26,SSW,210,0.0,0.0,95,0.00,CLR,SCT,0.00,WeatherDisplay:10.37,2013-03-30 11:29:00,
2013-03-30 07:30:00,45.5,44.2,30.26,SSW,210,0.0,0.0,95,0.00,CLR,SCT,0.00,WeatherDisplay:10.37,2013-03-30 11:30:00,
2013-03-30 07:32:00,45.5,44.2,30.26,SSW,210,0.0,0.0,95,0.00,CLR,SCT,0.00,WeatherDisplay:10.37,2013-03-30 11:32:00,
2013-03-30 07:34:00,45.5,44.2,30.26,SSW,210,0.0,0.0,95,0.00,CLR,SCT,0.00,WeatherDisplay:10.37,2013-03-30 11:34:00,
2013-03-30 07:35:00,45.6,44.3,30.26,SSW,210,0.0,0.0,95,0.00,CLR,SCT,0.00,WeatherDisplay:10.37,2013-03-30 11:35:00,
2013-03-30 07:37:00,45.7,44.4,30.26,SSW,210,0.0,0.0,95,0.00,CLR,SCT,0.00,WeatherDisplay:10.37,2013-03-30 11:37:00,
2013-03-30 07:39:00,45.7,44.4,30.26,SSW,210,0.0,0.0,95,0.00,CLR,SCT,0.00,WeatherDisplay:10.37,2013-03-30 11:39:00,
2013-03-30 07:40:00,45.7,44.4,30.26,SSW,210,0.0,0.0,95,0.00,CLR,SCT,0.00,WeatherDisplay:10.37,2013-03-30 11:40:00,
2013-03-30 07:41:00,45.8,44.4,30.26,SSW,210,0.0,0.0,95,0.00,CLR,SCT,0.00,WeatherDisplay:10.37,2013-03-30 11:41:00,
2013-03-30 07:43:00,46.1,45.0,30.26,SSW,210,0.0,0.0,96,0.00,CLR,SCT,0.00,WeatherDisplay:10.37,2013-03-30 11:43:00,
2013-03-30 07:44:00,46.3,45.2,30.26,SSW,210,0.0,0.0,96,0.00,CLR,SCT,0.00,WeatherDisplay:10.37,2013-03-30 11:44:00,
2013-03-30 07:45:00,46.5,45.4,30.26,SSW,210,0.0,0.0,96,0.00,CLR,SCT,0.00,WeatherDisplay:10.37,2013-03-30 11:45:00,
2013-03-30 07:46:00,46.6,45.5,30.26,SSW,210,0.0,0.0,96,0.00,CLR,SCT,0.00,WeatherDisplay:10.37,2013-03-30 11:46:00,
2013-03-30 07:48:00,46.8,45.7,30.26,SSW,210,0.0,0.0,96,0.00,CLR,SCT,0.00,WeatherDisplay:10.37,2013-03-30 11:48:00,
2013-03-30 07:49:00,46.9,45.8,30.27,SSW,210,0.0,0.0,96,0.00,CLR,SCT,0.00,WeatherDisplay:10.37,2013-03-30 11:49:00,
2013-03-30 07:50:00,47.0,45.9,30.27,SSW,210,0.0,0.0,96,0.00,CLR,SCT,0.00,WeatherDisplay:10.37,2013-03-30 11:50:00,
2013-03-30 07:51:00,47.1,46.0,30.27,SSW,210,0.0,0.0,96,0.00,CLR,SCT,0.00,WeatherDisplay:10.37,2013-03-30 11:51:00,
2013-03-30 07:53:00,47.2,46.1,30.27,SSW,210,0.0,0.0,96,0.00,CLR,SCT,0.00,WeatherDisplay:10.37,2013-03-30 11:53:00,
2013-03-30 07:54:00,47.3,46.2,30.27,SSW,210,0.0,0.0,96,0.00,CLR,SCT,0.00,WeatherDisplay:10.37,2013-03-30 11:54:00,
2013-03-30 07:55:00,47.4,46.3,30.27,SSW,210,0.0,0.0,96,0.00,CLR,SCT,0.00,WeatherDisplay:10.37,2013-03-30 11:55:00,
2013-03-30 07:56:00,47.5,46.4,30.27,SSW,210,0.0,0.0,96,0.00,CLR,SCT,0.00,WeatherDisplay:10.37,2013-03-30 11:56:00,
2013-03-30 07:58:00,47.7,46.6,30.27,SSW,210,0.0,0.0,96,0.00,CLR,SCT,0.00,WeatherDisplay:10.37,2013-03-30 11:58:00,
2013-03-30 08:00:00,47.8,46.7,30.27,SSW,210,0.0,0.0,96,0.00,CLR,SCT,0.00,WeatherDisplay:10.37,2013-03-30 12:00:00,
2013-03-30 08:02:00,47.9,46.8,30.27,SSW,210,0.0,0.0,96,0.00,CLR,SCT,0.00,WeatherDisplay:10.37,2013-03-30 12:02:00,
2013-03-30 08:03:00,48.1,47.0,30.27,SSW,210,0.0,0.0,96,0.00,CLR,SCT,0.00,WeatherDisplay:10.37,2013-03-30 12:03:00,
2013-03-30 08:05:00,48.2,47.1,30.27,SSW,210,0.0,0.0,96,0.00,CLR,SCT,0.00,WeatherDisplay:10.37,2013-03-30 12:05:00,
2013-03-30 08:07:00,48.3,47.2,30.27,SSW,210,0.0,0.0,96,0.00,CLR,SCT,0.00,WeatherDisplay:10.37,2013-03-30 12:07:00,
2013-03-30 08:09:00,48.3,47.2,30.27,SSW,210,0.0,0.0,96,0.00,CLR,SCT,0.00,WeatherDisplay:10.37,2013-03-30 12:09:00,
2013-03-30 08:10:00,48.4,47.3,30.27,SSW,210,0.0,0.0,96,0.00,CLR,SCT,0.00,WeatherDisplay:10.37,2013-03-30 12:10:00,
2013-03-30 08:11:00,48.4,47.3,30.27,SSW,210,0.0,0.0,96,0.00,CLR,SCT,0.00,WeatherDisplay:10.37,2013-03-30 12:11:00,
2013-03-30 08:12:00,48.5,47.4,30.27,SSW,210,0.0,0.0,96,0.00,CLR,SCT,0.00,WeatherDisplay:10.37,2013-03-30 12:12:00,
2013-03-30 08:14:00,48.7,47.6,30.27,SSW,210,0.0,0.0,96,0.00,CLR,SCT,0.00,WeatherDisplay:10.37,2013-03-30 12:14:00,
2013-03-30 08:15:00,48.8,47.7,30.27,SSW,210,0.0,0.0,96,0.00,CLR,SCT,0.00,WeatherDisplay:10.37,2013-03-30 12:15:00,
2013-03-30 08:16:00,48.9,47.8,30.27,SSW,210,0.0,0.0,96,0.00,CLR,SCT,0.00,WeatherDisplay:10.37,2013-03-30 12:16:00,
2013-03-30 08:18:00,49.2,48.1,30.27,SSW,210,0.0,0.0,96,0.00,CLR,SCT,0.00,WeatherDisplay:10.37,2013-03-30 12:18:00,
2013-03-30 08:19:00,49.2,48.1,30.27,SSW,210,0.0,0.0,96,0.00,CLR,SCT,0.00,WeatherDisplay:10.37,2013-03-30 12:19:00,
2013-03-30 08:20:00,49.3,48.2,30.27,SSW,210,0.0,0.0,96,0.00,CLR,SCT,0.00,WeatherDisplay:10.37,2013-03-30 12:20:00,
2013-03-30 08:22:00,49.6,48.5,30.27,SSW,210,0.0,0.0,96,0.00,CLR,SCT,0.00,WeatherDisplay:10.37,2013-03-30 12:22:00,
2013-03-30 08:23:00,49.7,48.6,30.27,SSW,210,0.0,0.0,96,0.00,CLR,SCT,0.00,WeatherDisplay:10.37,2013-03-30 12:23:00,
2013-03-30 08:24:00,49.8,48.7,30.27,SSW,210,0.0,0.0,96,0.00,CLR,SCT,0.00,WeatherDisplay:10.37,2013-03-30 12:24:00,
2013-03-30 08:25:00,49.9,48.8,30.27,SSW,210,0.0,0.0,96,0.00,CLR,SCT,0.00,WeatherDisplay:10.37,2013-03-30 12:25:00,
2013-03-30 08:27:00,50.2,49.1,30.27,SSW,210,0.0,0.0,96,0.00,CLR,SCT,0.00,WeatherDisplay:10.37,2013-03-30 12:27:00,
2013-03-30 08:28:00,50.3,49.2,30.27,SSW,210,0.0,0.0,96,0.00,CLR,SCT,0.00,WeatherDisplay:10.37,2013-03-30 12:28:00,
2013-03-30 08:29:00,50.4,49.3,30.27,SSW,210,0.0,0.0,96,0.00,CLR,SCT,0.00,WeatherDisplay:10.37,2013-03-30 12:29:00,
2013-03-30 08:30:00,50.4,49.3,30.27,SSW,210,0.0,0.0,96,0.00,CLR,SCT,0.00,WeatherDisplay:10.37,2013-03-30 12:30:00,
2013-03-30 08:32:00,50.8,49.7,30.27,SSW,210,0.0,0.0,96,0.00,CLR,SCT,0.00,WeatherDisplay:10.37,2013-03-30 12:32:00,
2013-03-30 08:33:00,50.9,49.8,30.27,SSW,210,0.0,0.0,96,0.00,CLR,SCT,0.00,WeatherDisplay:10.37,2013-03-30 12:33:00,
2013-03-30 08:35:00,50.9,49.8,30.27,SSW,210,0.0,0.0,96,0.00,CLR,SCT,0.00,WeatherDisplay:10.37,2013-03-30 12:35:00,
2013-03-30 08:38:00,51.5,50.4,30.27,SSW,210,0.0,0.0,96,0.00,CLR,SCT,0.00,WeatherDisplay:10.37,2013-03-30 12:38:00,
2013-03-30 08:39:00,51.7,50.6,30.27,SSW,210,0.0,0.0,96,0.00,CLR,SCT,0.00,WeatherDisplay:10.37,2013-03-30 12:39:00,
2013-03-30 08:40:00,51.9,50.8,30.27,SSW,210,0.0,0.0,96,0.00,CLR,SCT,0.00,WeatherDisplay:10.37,2013-03-30 12:40:00,
2013-03-30 08:43:00,52.7,51.6,30.27,SSW,210,0.0,0.0,96,0.00,CLR,SCT,0.00,WeatherDisplay:10.37,2013-03-30 12:43:00,
2013-03-30 08:44:00,53.0,51.9,30.27,SSW,210,0.0,0.0,96,0.00,CLR,SCT,0.00,WeatherDisplay:10.37,2013-03-30 12:44:00,
2013-03-30 08:45:00,53.6,52.5,30.27,SSW,210,0.0,0.0,96,0.00,CLR,SCT,0.00,WeatherDisplay:10.37,2013-03-30 12:45:00,
2013-03-30 08:48:00,54.6,53.5,30.27,SSW,210,0.0,0.0,96,0.00,CLR,SCT,0.00,WeatherDisplay:10.37,2013-03-30 12:48:00,
2013-03-30 08:49:00,55.0,53.9,30.27,SSW,210,0.0,0.0,96,0.00,CLR,SCT,0.00,WeatherDisplay:10.37,2013-03-30 12:49:00,
2013-03-30 08:50:00,55.4,54.0,30.27,SSW,210,0.0,0.0,95,0.00,CLR,SCT,0.00,WeatherDisplay:10.37,2013-03-30 12:50:00,
2013-03-30 08:53:00,56.6,54.6,30.27,SSW,210,0.0,0.0,93,0.00,CLR,SCT,0.00,WeatherDisplay:10.37,2013-03-30 12:53:00,
2013-03-30 08:54:00,56.9,54.6,30.27,SSW,210,0.0,0.0,92,0.00,CLR,SCT,0.00,WeatherDisplay:10.37,2013-03-30 12:54:00,
2013-03-30 08:55:00,57.3,54.7,30.27,SSW,210,0.0,0.0,91,0.00,CLR,SCT,0.00,WeatherDisplay:10.37,2013-03-30 12:55:00,
2013-03-30 08:58:00,58.5,55.3,30.27,SSW,210,0.0,0.0,89,0.00,CLR,SCT,0.00,WeatherDisplay:10.37,2013-03-30 12:58:00,
2013-03-30 08:59:00,58.8,55.3,30.27,SSW,210,0.0,0.0,88,0.00,CLR,SCT,0.00,WeatherDisplay:10.37,2013-03-30 12:59:00,
2013-03-30 09:00:00,59.1,55.2,30.27,SSW,210,0.0,0.0,87,0.00,CLR,SCT,0.00,WeatherDisplay:10.37,2013-03-30 13:00:00,
2013-03-30 09:04:00,60.2,55.3,30.27,SSW,207,0.0,0.0,84,0.00,CLR,SCT,0.00,WeatherDisplay:10.37,2013-03-30 13:04:00,
2013-03-30 09:05:00,60.6,55.1,30.27,SSW,207,1.1,0.0,82,0.00,CLR,SCT,0.00,WeatherDisplay:10.37,2013-03-30 13:05:00,
2013-03-30 09:09:00,61.7,55.1,30.28,SSW,207,0.0,0.0,79,0.00,CLR,SCT,0.00,WeatherDisplay:10.37,2013-03-30 13:09:00,
2013-03-30 09:10:00,61.9,55.0,30.28,SSW,207,0.0,0.0,78,0.00,CLR,SCT,0.00,WeatherDisplay:10.37,2013-03-30 13:10:00,
2013-03-30 09:14:00,63.2,54.4,30.28,South,177,0.0,0.0,73,0.00,CLR,SCT,0.00,WeatherDisplay:10.37,2013-03-30 13:14:00,
2013-03-30 09:15:00,63.4,54.2,30.28,SSW,198,0.0,0.0,72,0.00,CLR,SCT,0.00,WeatherDisplay:10.37,2013-03-30 13:15:00,
2013-03-30 09:16:00,63.7,54.1,30.28,SSW,198,0.0,0.0,71,0.00,CLR,SCT,0.00,WeatherDisplay:10.37,2013-03-30 13:16:00,
2013-03-30 09:19:00,64.7,54.7,30.28,SE,143,0.0,0.1,70,0.00,CLR,SCT,0.00,WeatherDisplay:10.37,2013-03-30 13:19:00,
2013-03-30 09:20:00,64.9,53.7,30.28,SE,143,1.1,1.1,67,0.00,CLR,SCT,0.00,WeatherDisplay:10.37,2013-03-30 13:20:00,
2013-03-30 09:21:00,65.4,53.7,30.28,SSE,148,1.1,1.1,66,0.00,CLR,SCT,0.00,WeatherDisplay:10.37,2013-03-30 13:21:00,
2013-03-30 09:24:00,66.0,53.9,30.28,SE,141,1.1,0.0,65,0.00,CLR,SCT,0.00,WeatherDisplay:10.37,2013-03-30 13:24:00,
2013-03-30 09:25:00,66.0,53.9,30.28,SSE,160,0.0,1.0,65,0.00,CLR,SCT,0.00,WeatherDisplay:10.37,2013-03-30 13:25:00,
2013-03-30 09:27:00,66.4,53.8,30.28,SSW,210,2.3,2.3,64,0.00,CLR,SCT,0.00,WeatherDisplay:10.37,2013-03-30 13:27:00,
2013-03-30 09:30:00,66.7,54.1,30.28,SSE,150,0.0,2.0,64,0.00,CLR,SCT,0.00,WeatherDisplay:10.37,2013-03-30 13:30:00,
2013-03-30 09:31:00,66.9,53.9,30.28,SSE,157,1.1,1.1,63,0.00,CLR,SCT,0.00,WeatherDisplay:10.37,2013-03-30 13:31:00,
2013-03-30 09:32:00,67.1,54.1,30.28,South,173,0.0,0.0,63,0.00,CLR,SCT,0.00,WeatherDisplay:10.37,2013-03-30 13:32:00,
2013-03-30 09:35:00,67.4,53.9,30.28,SSW,201,1.1,1.1,62,0.00,CLR,SCT,0.00,WeatherDisplay:10.37,2013-03-30 13:35:00,
2013-03-30 09:36:00,67.5,54.0,30.28,SE,125,1.1,1.1,62,0.00,CLR,SCT,0.00,WeatherDisplay:10.37,2013-03-30 13:36:00,
2013-03-30 09:37:00,67.7,54.2,30.28,SSE,148,2.3,2.3,62,0.00,CLR,SCT,0.00,WeatherDisplay:10.37,2013-03-30 13:37:00,
2013-03-30 09:40:00,67.9,54.0,30.28,SSE,150,2.3,2.3,61,0.00,CLR,SCT,0.00,WeatherDisplay:10.37,2013-03-30 13:40:00,
2013-03-30 09:41:00,68.0,54.0,30.28,SSE,153,2.3,2.3,61,0.00,CLR,SCT,0.00,WeatherDisplay:10.37,2013-03-30 13:41:00,
2013-03-30 09:43:00,68.3,54.3,30.28,South,181,1.1,1.1,61,0.00,CLR,SCT,0.00,WeatherDisplay:10.37,2013-03-30 13:43:00,
2013-03-30 09:45:00,68.6,54.2,30.28,SSE,152,1.1,1.1,60,0.00,CLR,SCT,0.00,WeatherDisplay:10.37,2013-03-30 13:45:00,
2013-03-30 09:46:00,68.7,54.3,30.28,SSE,162,1.1,1.1,60,0.00,CLR,SCT,0.00,WeatherDisplay:10.37,2013-03-30 13:46:00,
2013-03-30 09:48:00,69.0,54.1,30.28,SSE,155,2.3,2.3,59,0.00,CLR,SCT,0.00,WeatherDisplay:10.37,2013-03-30 13:48:00,
2013-03-30 09:50:00,69.2,54.3,30.28,NE,37,1.1,1.1,59,0.00,CLR,SCT,0.00,WeatherDisplay:10.37,2013-03-30 13:50:00,
2013-03-30 09:51:00,69.2,54.3,30.28,NE,40,1.1,1.1,59,0.00,CLR,SCT,0.00,WeatherDisplay:10.37,2013-03-30 13:51:00,
2013-03-30 09:53:00,69.5,54.5,30.28,ESE,108,1.1,0.0,59,0.00,CLR,SCT,0.00,WeatherDisplay:10.37,2013-03-30 13:53:00,
2013-03-30 09:56:00,69.8,54.8,30.28,SE,126,2.3,2.3,59,0.00,CLR,SCT,0.00,WeatherDisplay:10.37,2013-03-30 13:56:00,
2013-03-30 09:58:00,69.9,54.0,30.28,SSW,201,2.3,2.3,57,0.00,CLR,SCT,0.00,WeatherDisplay:10.37,2013-03-30 13:58:00,
2013-03-30 10:01:00,70.1,54.2,30.28,SSW,212,2.3,2.3,57,0.00,CLR,SCT,0.00,WeatherDisplay:10.37,2013-03-30 14:01:00,
2013-03-30 10:03:00,70.2,54.2,30.28,South,169,2.3,2.3,57,0.00,CLR,SCT,0.00,WeatherDisplay:10.37,2013-03-30 14:03:00,
2013-03-30 10:06:00,70.5,54.5,30.28,SSE,166,2.3,2.3,57,0.00,CLR,SCT,0.00,WeatherDisplay:10.37,2013-03-30 14:06:00,
2013-03-30 10:07:00,70.5,54.5,30.28,SE,135,2.3,2.3,57,0.00,CLR,SCT,0.00,WeatherDisplay:10.37,2013-03-30 14:07:00,
2013-03-30 10:08:00,70.7,54.7,30.28,SSE,160,2.3,2.3,57,0.00,CLR,SCT,0.00,WeatherDisplay:10.37,2013-03-30 14:08:00,
2013-03-30 10:12:00,71.1,54.6,30.28,SE,145,1.1,1.1,56,0.00,CLR,SCT,0.00,WeatherDisplay:10.37,2013-03-30 14:12:00,
2013-03-30 10:13:00,71.3,54.8,30.28,SSW,205,3.5,3.5,56,0.00,CLR,SCT,0.00,WeatherDisplay:10.37,2013-03-30 14:13:00,
2013-03-30 10:17:00,71.5,54.5,30.28,SE,131,4.6,4.6,55,0.00,CLR,SCT,0.00,WeatherDisplay:10.37,2013-03-30 14:17:00,
2013-03-30 10:18:00,71.5,54.5,30.28,SSW,193,3.5,3.5,55,0.00,CLR,SCT,0.00,WeatherDisplay:10.37,2013-03-30 14:18:00,
2013-03-30 10:19:00,71.5,54.5,30.28,SE,145,3.5,3.5,55,0.00,CLR,SCT,0.00,WeatherDisplay:10.37,2013-03-30 14:19:00,
2013-03-30 10:22:00,71.6,55.1,30.28,WSW,246,7.0,7.0,56,0.00,CLR,SCT,0.00,WeatherDisplay:10.37,2013-03-30 14:22:00,
2013-03-30 10:23:00,71.7,54.7,30.28,South,179,6.9,6.9,55,0.00,CLR,SCT,0.00,WeatherDisplay:10.37,2013-03-30 14:23:00,
2013-03-30 10:24:00,71.7,54.7,30.28,SSE,159,3.5,3.5,55,0.00,CLR,SCT,0.00,WeatherDisplay:10.37,2013-03-30 14:24:00,
2013-03-30 10:27:00,71.7,54.7,30.28,SSE,162,5.8,5.8,55,0.00,CLR,SCT,0.00,WeatherDisplay:10.37,2013-03-30 14:27:00,
2013-03-30 10:28:00,71.6,54.1,30.28,SE,128,5.0,5.0,54,0.00,CLR,SCT,0.00,WeatherDisplay:10.37,2013-03-30 14:28:00,
2013-03-30 10:29:00,71.6,54.6,30.27,SSE,162,4.6,4.6,55,0.00,CLR,SCT,0.00,WeatherDisplay:10.37,2013-03-30 14:29:00,
2013-03-30 10:32:00,71.4,53.9,30.27,SE,146,5.8,5.8,54,0.00,CLR,SCT,0.00,WeatherDisplay:10.37,2013-03-30 14:32:00,
2013-03-30 10:34:00,71.4,54.4,30.27,SE,141,3.5,3.5,55,0.00,CLR,SCT,0.00,WeatherDisplay:10.37,2013-03-30 14:34:00,
2013-03-30 10:37:00,71.4,54.4,30.27,SSW,195,6.9,6.9,55,0.00,CLR,SCT,0.00,WeatherDisplay:10.37,2013-03-30 14:37:00,
2013-03-30 10:38:00,71.4,54.4,30.27,SE,146,6.9,6.9,55,0.00,CLR,SCT,0.00,WeatherDisplay:10.37,2013-03-30 14:38:00,
2013-03-30 10:39:00,71.3,53.8,30.27,SSW,198,6.9,6.9,54,0.00,CLR,SCT,0.00,WeatherDisplay:10.37,2013-03-30 14:39:00,
2013-03-30 10:43:00,71.2,54.2,30.27,SW,217,4.0,4.0,55,0.00,CLR,SCT,0.00,WeatherDisplay:10.37,2013-03-30 14:43:00,
2013-03-30 10:44:00,71.3,53.8,30.27,SSW,194,4.6,4.6,54,0.00,CLR,SCT,0.00,WeatherDisplay:10.37,2013-03-30 14:44:00,
2013-03-30 10:48:00,71.6,54.1,30.27,WSW,238,4.0,4.0,54,0.00,CLR,SCT,0.00,WeatherDisplay:10.37,2013-03-30 14:48:00,
2013-03-30 10:49:00,71.6,54.1,30.27,SE,132,3.5,3.8,54,0.00,CLR,SCT,0.00,WeatherDisplay:10.37,2013-03-30 14:49:00,
2013-03-30 10:50:00,71.6,54.1,30.27,South,181,6.9,6.9,54,0.00,CLR,SCT,0.00,WeatherDisplay:10.37,2013-03-30 14:50:00,
2013-03-30 10:53:00,71.6,53.6,30.27,SSE,149,5.0,5.0,53,0.00,CLR,SCT,0.00,WeatherDisplay:10.37,2013-03-30 14:53:00,
2013-03-30 10:55:00,71.6,53.6,30.27,SW,215,4.6,4.6,53,0.00,CLR,SCT,0.00,WeatherDisplay:10.37,2013-03-30 14:55:00,
2013-03-30 10:58:00,71.9,53.3,30.27,SSW,200,4.6,4.6,52,0.00,CLR,SCT,0.00,WeatherDisplay:10.37,2013-03-30 14:58:00,
2013-03-30 11:00:00,72.1,53.5,30.27,SE,146,3.5,3.5,52,0.00,CLR,SCT,0.00,WeatherDisplay:10.37,2013-03-30 15:00:00,
2013-03-30 11:03:00,72.2,53.1,30.27,South,172,8.1,8.1,51,0.00,CLR,SCT,0.00,WeatherDisplay:10.37,2013-03-30 15:03:00,
2013-03-30 11:05:00,72.3,53.2,30.27,South,187,2.3,2.3,51,0.00,CLR,SCT,0.00,WeatherDisplay:10.37,2013-03-30 15:05:00,
2013-03-30 11:08:00,72.6,53.4,30.27,SSE,148,3.5,3.5,51,0.00,CLR,SCT,0.00,WeatherDisplay:10.37,2013-03-30 15:08:00,
2013-03-30 11:09:00,72.6,53.4,30.27,SE,141,3.5,3.5,51,0.00,CLR,SCT,0.00,WeatherDisplay:10.37,2013-03-30 15:09:00,
2013-03-30 11:10:00,72.7,53.0,30.26,SSE,162,3.5,3.5,50,0.00,CLR,SCT,0.00,WeatherDisplay:10.37,2013-03-30 15:10:00,
2013-03-30 11:13:00,73.3,52.4,30.27,SSW,204,4.6,4.6,48,0.00,CLR,SCT,0.00,WeatherDisplay:10.37,2013-03-30 15:13:00,
2013-03-30 11:14:00,73.4,52.5,30.26,SSW,210,3.5,3.5,48,0.00,CLR,SCT,0.00,WeatherDisplay:10.37,2013-03-30 15:14:00,
2013-03-30 11:15:00,73.5,52.6,30.26,SSE,150,3.5,3.5,48,0.00,CLR,SCT,0.00,WeatherDisplay:10.37,2013-03-30 15:15:00,
2013-03-30 11:18:00,73.7,52.2,30.26,SSE,163,3.5,3.5,47,0.00,CLR,SCT,0.00,WeatherDisplay:10.37,2013-03-30 15:18:00,
2013-03-30 11:19:00,73.8,52.9,30.26,SSW,201,5.8,5.8,48,0.00,CLR,SCT,0.00,WeatherDisplay:10.37,2013-03-30 15:19:00,
2013-03-30 11:20:00,73.9,53.0,30.26,South,177,5.8,5.8,48,0.00,CLR,SCT,0.00,WeatherDisplay:10.37,2013-03-30 15:20:00,
2013-03-30 11:21:00,74.0,52.5,30.26,SW,224,4.0,4.0,47,0.00,CLR,SCT,0.00,WeatherDisplay:10.37,2013-03-30 15:21:00,
2013-03-30 11:23:00,74.1,51.4,30.26,SSW,198,3.5,3.5,45,0.00,CLR,SCT,0.00,WeatherDisplay:10.37,2013-03-30 15:23:00,
2013-03-30 11:24:00,74.2,51.5,30.26,SSW,193,5.0,5.0,45,0.00,CLR,SCT,0.00,WeatherDisplay:10.37,2013-03-30 15:24:00,
2013-03-30 11:25:00,74.2,51.5,30.26,WSW,256,8.1,8.1,45,0.00,CLR,SCT,0.00,WeatherDisplay:10.37,2013-03-30 15:25:00,
2013-03-30 11:27:00,74.2,52.1,30.26,SSE,166,3.5,3.5,46,0.00,CLR,SCT,0.00,WeatherDisplay:10.37,2013-03-30 15:27:00,
2013-03-30 11:29:00,74.4,52.3,30.26,SSE,151,3.5,3.5,46,0.00,CLR,SCT,0.00,WeatherDisplay:10.37,2013-03-30 15:29:00,
2013-03-30 11:31:00,74.6,52.4,30.26,South,180,3.5,3.5,46,0.00,CLR,SCT,0.00,WeatherDisplay:10.37,2013-03-30 15:31:00,
2013-03-30 11:32:00,74.7,52.5,30.26,SE,146,4.6,4.6,46,0.00,CLR,SCT,0.00,WeatherDisplay:10.37,2013-03-30 15:32:00,
2013-03-30 11:34:00,74.8,52.0,30.26,South,188,3.5,3.5,45,0.00,CLR,SCT,0.00,WeatherDisplay:10.37,2013-03-30 15:34:00,
2013-03-30 11:36:00,74.8,51.4,30.26,SSE,155,4.6,4.6,44,0.00,CLR,SCT,0.00,WeatherDisplay:10.37,2013-03-30 15:36:00,
2013-03-30 11:37:00,74.8,51.4,30.26,SW,214,5.0,5.0,44,0.00,CLR,SCT,0.00,WeatherDisplay:10.37,2013-03-30 15:37:00,
2013-03-30 11:39:00,74.8,51.4,30.26,South,181,5.8,5.8,44,0.00,CLR,SCT,0.00,WeatherDisplay:10.37,2013-03-30 15:39:00,
2013-03-30 11:42:00,74.9,51.5,30.26,South,181,5.8,5.8,44,0.00,CLR,SCT,0.00,WeatherDisplay:10.37,2013-03-30 15:42:00,
2013-03-30 11:44:00,75.0,51.6,30.26,SSE,149,4.6,4.6,44,0.00,CLR,SCT,0.00,WeatherDisplay:10.37,2013-03-30 15:44:00,
2013-03-30 11:47:00,75.2,51.2,30.26,South,191,5.8,5.8,43,0.00,CLR,SCT,0.00,WeatherDisplay:10.37,2013-03-30 15:47:00,
2013-03-30 11:49:00,75.4,51.3,30.26,SSE,159,3.5,3.5,43,0.00,CLR,SCT,0.00,WeatherDisplay:10.37,2013-03-30 15:49:00,
2013-03-30 11:52:00,75.4,50.7,30.26,SSW,212,4.6,4.6,42,0.00,CLR,SCT,0.00,WeatherDisplay:10.37,2013-03-30 15:52:00,
2013-03-30 11:53:00,75.4,50.7,30.26,SW,215,5.8,5.8,42,0.00,CLR,SCT,0.00,WeatherDisplay:10.37,2013-03-30 15:53:00,
2013-03-30 11:54:00,75.4,51.3,30.26,South,191,3.5,3.5,43,0.00,CLR,SCT,0.00,WeatherDisplay:10.37,2013-03-30 15:54:00,
2013-03-30 11:57:00,75.5,52.1,30.25,WSW,242,2.0,2.0,44,0.00,CLR,SCT,0.00,WeatherDisplay:10.37,2013-03-30 15:57:00,
2013-03-30 11:58:00,75.6,52.1,30.25,South,169,2.3,2.3,44,0.00,CLR,SCT,0.00,WeatherDisplay:10.37,2013-03-30 15:58:00,
2013-03-30 11:59:00,75.8,51.7,30.25,South,172,3.5,3.5,43,0.00,CLR,SCT,0.00,WeatherDisplay:10.37,2013-03-30 15:59:00,
2013-03-30 12:03:00,76.1,51.3,30.25,SSW,205,4.6,4.6,42,0.00,CLR,SCT,0.00,WeatherDisplay:10.37,2013-03-30 16:03:00,
2013-03-30 12:05:00,76.2,52.1,30.25,SSE,164,3.5,3.5,43,0.00,CLR,SCT,0.00,WeatherDisplay:10.37,2013-03-30 16:05:00,
2013-03-30 12:08:00,76.4,51.0,30.25,South,183,4.6,4.6,41,0.00,CLR,SCT,0.00,WeatherDisplay:10.37,2013-03-30 16:08:00,
2013-03-30 12:10:00,76.4,51.0,30.25,SSW,203,3.5,3.5,41,0.00,CLR,SCT,0.00,WeatherDisplay:10.37,2013-03-30 16:10:00,
2013-03-30 12:13:00,76.4,51.0,30.25,South,172,4.6,4.6,41,0.00,CLR,SCT,0.00,WeatherDisplay:10.37,2013-03-30 16:13:00,
2013-03-30 12:15:00,76.5,52.3,30.25,SW,219,5.8,5.8,43,0.00,CLR,SCT,0.00,WeatherDisplay:10.37,2013-03-30 16:15:00,
2013-03-30 12:18:00,76.9,52.1,30.25,South,186,3.5,3.5,42,0.00,CLR,SCT,0.00,WeatherDisplay:10.37,2013-03-30 16:18:00,
2013-03-30 12:20:00,77.1,51.6,30.25,ESE,112,4.6,4.6,41,0.00,CLR,SCT,0.00,WeatherDisplay:10.37,2013-03-30 16:20:00,
2013-03-30 12:23:00,77.3,51.8,30.25,SSE,156,3.0,3.0,41,0.00,CLR,SCT,0.00,WeatherDisplay:10.37,2013-03-30 16:23:00,
2013-03-30 12:24:00,77.4,51.9,30.25,SSW,195,3.5,3.5,41,0.00,CLR,SCT,0.00,WeatherDisplay:10.37,2013-03-30 16:24:00,
2013-03-30 12:25:00,77.5,51.9,30.25,SW,217,4.0,4.0,41,0.00,CLR,SCT,0.00,WeatherDisplay:10.37,2013-03-30 16:25:00,
2013-03-30 12:28:00,77.3,53.1,30.25,South,188,3.5,3.5,43,0.00,CLR,SCT,0.00,WeatherDisplay:10.37,2013-03-30 16:28:00,
2013-03-30 12:29:00,77.4,52.5,30.25,SW,215,3.5,3.5,42,0.00,CLR,SCT,0.00,WeatherDisplay:10.37,2013-03-30 16:29:00,
2013-03-30 12:30:00,77.5,51.9,30.25,SSE,165,2.3,2.3,41,0.00,CLR,SCT,0.00,WeatherDisplay:10.37,2013-03-30 16:30:00,
2013-03-30 12:31:00,77.5,51.9,30.25,SSE,160,3.5,3.5,41,0.00,CLR,SCT,0.00,WeatherDisplay:10.37,2013-03-30 16:31:00,
2013-03-30 12:33:00,77.8,51.5,30.25,SE,133,4.6,4.6,40,0.00,CLR,SCT,0.00,WeatherDisplay:10.37,2013-03-30 16:33:00,
2013-03-30 12:34:00,77.7,51.5,30.25,SSE,153,3.5,3.5,40,0.00,CLR,SCT,0.00,WeatherDisplay:10.37,2013-03-30 16:34:00,
2013-03-30 12:35:00,77.8,50.9,30.25,South,182,3.5,3.5,39,0.00,CLR,SCT,0.00,WeatherDisplay:10.37,2013-03-30 16:35:00,
2013-03-30 12:36:00,77.8,50.9,30.25,SSW,194,3.5,3.5,39,0.00,CLR,SCT,0.00,WeatherDisplay:10.37,2013-03-30 16:36:00,
2013-03-30 12:39:00,78.0,51.7,30.25,South,191,3.5,3.5,40,0.00,CLR,SCT,0.00,WeatherDisplay:10.37,2013-03-30 16:39:00,
2013-03-30 12:40:00,78.1,51.1,30.24,SE,143,4.6,4.6,39,0.00,CLR,SCT,0.00,WeatherDisplay:10.37,2013-03-30 16:40:00,
2013-03-30 12:42:00,78.2,51.2,30.24,SSE,164,3.5,3.5,39,0.00,CLR,SCT,0.00,WeatherDisplay:10.37,2013-03-30 16:42:00,
2013-03-30 12:44:00,78.2,50.5,30.24,North,9,3.5,3.5,38,0.00,CLR,SCT,0.00,WeatherDisplay:10.37,2013-03-30 16:44:00,
2013-03-30 12:45:00,78.1,50.4,30.24,SSE,164,3.5,3.5,38,0.00,CLR,SCT,0.00,WeatherDisplay:10.37,2013-03-30 16:45:00,
2013-03-30 12:47:00,78.2,50.5,30.24,SSW,204,3.5,3.5,38,0.00,CLR,SCT,0.00,WeatherDisplay:10.37,2013-03-30 16:47:00,
2013-03-30 12:49:00,78.3,51.3,30.24,ESE,111,3.5,3.5,39,0.00,CLR,SCT,0.00,WeatherDisplay:10.37,2013-03-30 16:49:00,
2013-03-30 12:50:00,78.6,50.9,30.24,South,188,3.5,3.5,38,0.00,CLR,SCT,0.00,WeatherDisplay:10.37,2013-03-30 16:50:00,
2013-03-30 12:52:00,78.8,50.3,30.24,SSE,154,3.5,3.5,37,0.00,CLR,SCT,0.00,WeatherDisplay:10.37,2013-03-30 16:52:00,
2013-03-30 12:54:00,78.8,50.3,30.23,SSW,207,5.8,5.8,37,0.00,CLR,SCT,0.00,WeatherDisplay:10.37,2013-03-30 16:54:00,
2013-03-30 12:55:00,78.8,50.3,30.23,SSW,202,5.8,5.8,37,0.00,CLR,SCT,0.00,WeatherDisplay:10.37,2013-03-30 16:55:00,
2013-03-30 12:56:00,78.8,50.3,30.23,SSE,163,8.1,8.1,37,0.00,CLR,SCT,0.00,WeatherDisplay:10.37,2013-03-30 16:56:00,
2013-03-30 12:57:00,78.8,51.0,30.23,SE,142,8.1,8.1,38,0.00,CLR,SCT,0.00,WeatherDisplay:10.37,2013-03-30 16:57:00,
2013-03-30 13:00:00,78.9,49.7,30.23,SSE,167,3.0,8.0,36,0.00,CLR,SCT,0.00,WeatherDisplay:10.37,2013-03-30 17:00:00,
2013-03-30 13:01:00,79.0,50.5,30.23,SE,129,3.5,3.5,37,0.00,CLR,SCT,0.00,WeatherDisplay:10.37,2013-03-30 17:01:00,
2013-03-30 13:02:00,79.0,50.5,30.23,ENE,58,3.5,3.5,37,0.00,CLR,SCT,0.00,WeatherDisplay:10.37,2013-03-30 17:02:00,
2013-03-30 13:05:00,79.0,49.8,30.23,South,169,1.0,4.0,36,0.00,CLR,SCT,0.00,WeatherDisplay:10.37,2013-03-30 17:05:00,
2013-03-30 13:06:00,79.2,49.9,30.23,SSE,148,3.5,3.5,36,0.00,CLR,SCT,0.00,WeatherDisplay:10.37,2013-03-30 17:06:00,
2013-03-30 13:07:00,79.1,49.8,30.23,SE,138,3.5,3.5,36,0.00,CLR,SCT,0.00,WeatherDisplay:10.37,2013-03-30 17:07:00,
2013-03-30 13:10:00,79.2,50.7,30.23,East,99,3.5,3.5,37,0.00,CLR,SCT,0.00,WeatherDisplay:10.37,2013-03-30 17:10:00,
2013-03-30 13:11:00,79.1,50.6,30.23,SW,214,2.3,2.5,37,0.00,CLR,SCT,0.00,WeatherDisplay:10.37,2013-03-30 17:11:00,
2013-03-30 13:13:00,79.2,50.7,30.23,SE,142,4.6,4.6,37,0.00,CLR,SCT,0.00,WeatherDisplay:10.37,2013-03-30 17:13:00,
2013-03-30 13:15:00,79.4,50.9,30.23,South,171,3.5,3.5,37,0.00,CLR,SCT,0.00,WeatherDisplay:10.37,2013-03-30 17:15:00,
2013-03-30 13:16:00,79.5,50.2,30.23,SSE,157,4.6,4.6,36,0.00,CLR,SCT,0.00,WeatherDisplay:10.37,2013-03-30 17:16:00,
2013-03-30 13:18:00,79.5,50.2,30.23,ENE,66,3.5,3.5,36,0.00,CLR,SCT,0.00,WeatherDisplay:10.37,2013-03-30 17:18:00,
2013-03-30 13:20:00,79.3,50.0,30.22,NE,52,3.5,3.5,36,0.00,CLR,SCT,0.00,WeatherDisplay:10.37,2013-03-30 17:20:00,
2013-03-30 13:22:00,79.2,50.7,30.22,ENE,64,2.3,2.3,37,0.00,CLR,SCT,0.00,WeatherDisplay:10.37,2013-03-30 17:22:00,
2013-03-30 13:23:00,79.4,50.9,30.22,North,6,6.9,6.9,37,0.00,CLR,SCT,0.00,WeatherDisplay:10.37,2013-03-30 17:23:00,
2013-03-30 13:25:00,79.6,51.0,30.22,SSW,210,3.5,3.5,37,0.00,CLR,SCT,0.00,WeatherDisplay:10.37,2013-03-30 17:25:00,
2013-03-30 13:27:00,79.8,51.2,30.22,SSW,212,2.3,2.3,37,0.00,CLR,SCT,0.00,WeatherDisplay:10.37,2013-03-30 17:27:00,
2013-03-30 13:28:00,80.0,50.6,30.22,SSE,148,3.5,3.5,36,0.00,CLR,SCT,0.00,WeatherDisplay:10.37,2013-03-30 17:28:00,
2013-03-30 13:30:00,79.9,49.8,30.22,SSE,156,3.5,3.5,35,0.00,CLR,SCT,0.00,WeatherDisplay:10.37,2013-03-30 17:30:00,
2013-03-30 13:32:00,79.9,50.6,30.22,South,181,1.1,1.1,36,0.00,CLR,SCT,0.00,WeatherDisplay:10.37,2013-03-30 17:32:00,
2013-03-30 13:34:00,80.0,49.9,30.22,West,270,4.6,4.6,35,0.00,CLR,SCT,0.00,WeatherDisplay:10.37,2013-03-30 17:34:00,
2013-03-30 13:35:00,80.1,50.7,30.22,SE,136,2.3,2.3,36,0.00,CLR,SCT,0.00,WeatherDisplay:10.37,2013-03-30 17:35:00,
2013-03-30 13:36:00,80.1,50.7,30.22,SE,136,2.3,2.3,36,0.00,CLR,SCT,0.00,WeatherDisplay:10.37,2013-03-30 17:36:00,
2013-03-30 13:37:00,80.2,50.1,30.22,North,354,3.5,3.5,35,0.00,CLR,SCT,0.00,WeatherDisplay:10.37,2013-03-30 17:37:00,
2013-03-30 13:39:00,80.3,49.4,30.22,South,181,3.5,3.5,34,0.00,CLR,SCT,0.00,WeatherDisplay:10.37,2013-03-30 17:39:00,
2013-03-30 13:40:00,80.3,49.4,30.22,SW,228,3.5,3.5,34,0.00,CLR,SCT,0.00,WeatherDisplay:10.37,2013-03-30 17:40:00,
2013-03-30 13:41:00,80.3,49.4,30.22,SW,215,3.5,3.5,34,0.00,CLR,SCT,0.00,WeatherDisplay:10.37,2013-03-30 17:41:00,
2013-03-30 13:42:00,80.3,49.4,30.22,SSE,165,3.5,3.5,34,0.00,CLR,SCT,0.00,WeatherDisplay:10.37,2013-03-30 17:42:00,
2013-03-30 13:44:00,80.2,49.3,30.21,SSE,166,4.6,4.6,34,0.00,CLR,SCT,0.00,WeatherDisplay:10.37,2013-03-30 17:44:00,
2013-03-30 13:45:00,80.1,50.0,30.21,ESE,122,4.6,4.6,35,0.00,CLR,SCT,0.00,WeatherDisplay:10.37,2013-03-30 17:45:00,
2013-03-30 13:46:00,80.1,50.0,30.21,ESE,123,1.1,1.1,35,0.00,CLR,SCT,0.00,WeatherDisplay:10.37,2013-03-30 17:46:00,
2013-03-30 13:47:00,80.2,50.8,30.21,SW,217,2.0,2.4,36,0.00,CLR,SCT,0.00,WeatherDisplay:10.37,2013-03-30 17:47:00,
2013-03-30 13:49:00,80.2,50.1,30.21,SSE,149,3.5,3.5,35,0.00,CLR,SCT,0.00,WeatherDisplay:10.37,2013-03-30 17:49:00,
2013-03-30 13:50:00,80.4,50.2,30.21,SSW,194,3.5,3.5,35,0.00,CLR,SCT,0.00,WeatherDisplay:10.37,2013-03-30 17:50:00,
2013-03-30 13:52:00,80.4,49.5,30.21,SE,145,3.5,3.5,34,0.00,CLR,SCT,0.00,WeatherDisplay:10.37,2013-03-30 17:52:00,
2013-03-30 13:54:00,80.7,50.5,30.21,SSE,157,3.5,3.5,35,0.00,CLR,SCT,0.00,WeatherDisplay:10.37,2013-03-30 17:54:00,
2013-03-30 13:56:00,81.0,50.8,30.21,SE,125,2.3,2.3,35,0.00,CLR,SCT,0.00,WeatherDisplay:10.37,2013-03-30 17:56:00,
2013-03-30 13:57:00,81.2,49.4,30.21,SSW,201,3.5,3.5,33,0.00,CLR,SCT,0.00,WeatherDisplay:10.37,2013-03-30 17:57:00,
2013-03-30 13:58:00,81.2,49.4,30.20,SSW,204,3.5,3.5,33,0.00,CLR,SCT,0.00,WeatherDisplay:10.37,2013-03-30 17:58:00,
2013-03-30 14:00:00,81.4,50.3,30.20,SW,222,2.3,2.3,34,0.00,CLR,SCT,0.00,WeatherDisplay:10.37,2013-03-30 18:00:00,
2013-03-30 14:02:00,81.5,50.4,30.20,SE,140,4.0,4.0,34,0.00,CLR,SCT,0.00,WeatherDisplay:10.37,2013-03-30 18:02:00,
2013-03-30 14:03:00,81.5,50.4,30.20,SE,144,4.6,4.6,34,0.00,CLR,SCT,0.00,WeatherDisplay:10.37,2013-03-30 18:03:00,
2013-03-30 14:05:00,81.4,49.5,30.20,South,188,2.3,2.3,33,0.00,CLR,SCT,0.00,WeatherDisplay:10.37,2013-03-30 18:05:00,
2013-03-30 14:07:00,81.4,50.3,30.20,ENE,57,4.6,4.6,34,0.00,CLR,SCT,0.00,WeatherDisplay:10.37,2013-03-30 18:07:00,
2013-03-30 14:08:00,81.3,50.2,30.20,ENE,57,3.5,3.5,34,0.00,CLR,SCT,0.00,WeatherDisplay:10.37,2013-03-30 18:08:00,
2013-03-30 14:10:00,81.4,50.3,30.20,SSE,150,3.5,3.5,34,0.00,CLR,SCT,0.00,WeatherDisplay:10.37,2013-03-30 18:10:00,
2013-03-30 14:12:00,81.4,50.3,30.20,SSE,148,2.3,2.3,34,0.00,CLR,SCT,0.00,WeatherDisplay:10.37,2013-03-30 18:12:00,
2013-03-30 14:13:00,81.4,50.3,30.20,SW,218,3.5,3.5,34,0.00,CLR,SCT,0.00,WeatherDisplay:10.37,2013-03-30 18:13:00,
2013-03-30 14:15:00,81.5,50.4,30.20,SSE,153,5.0,5.0,34,0.00,CLR,SCT,0.00,WeatherDisplay:10.37,2013-03-30 18:15:00,
2013-03-30 14:17:00,81.4,49.5,30.20,East,98,6.9,6.9,33,0.00,CLR,SCT,0.00,WeatherDisplay:10.37,2013-03-30 18:17:00,
2013-03-30 14:18:00,81.4,49.5,30.20,SSE,159,1.1,1.1,33,0.00,CLR,SCT,0.00,WeatherDisplay:10.37,2013-03-30 18:18:00,
2013-03-30 14:20:00,81.0,48.4,30.20,SSE,155,3.0,3.0,32,0.00,CLR,SCT,0.00,WeatherDisplay:10.37,2013-03-30 18:20:00,
2013-03-30 14:23:00,80.4,49.5,30.20,SSW,205,5.8,5.8,34,0.00,CLR,SCT,0.00,WeatherDisplay:10.37,2013-03-30 18:23:00,
2013-03-30 14:25:00,80.2,50.1,30.19,SSE,157,3.5,3.5,35,0.00,CLR,SCT,0.00,WeatherDisplay:10.37,2013-03-30 18:25:00,
2013-03-30 14:28:00,80.2,49.3,30.19,South,174,3.5,3.5,34,0.00,CLR,SCT,0.00,WeatherDisplay:10.37,2013-03-30 18:28:00,
2013-03-30 14:30:00,80.1,50.0,30.19,SW,222,2.3,2.3,35,0.00,CLR,SCT,0.00,WeatherDisplay:10.37,2013-03-30 18:30:00,
2013-03-30 14:33:00,79.8,49.7,30.19,NE,53,2.3,2.3,35,0.00,CLR,SCT,0.00,WeatherDisplay:10.37,2013-03-30 18:33:00,
2013-03-30 14:35:00,79.4,49.4,30.18,South,184,1.1,0.0,35,0.00,CLR,SCT,0.00,WeatherDisplay:10.37,2013-03-30 18:35:00,
2013-03-30 14:38:00,79.4,49.4,30.18,South,179,0.0,0.0,35,0.00,CLR,SCT,0.00,WeatherDisplay:10.37,2013-03-30 18:38:00,
2013-03-30 14:39:00,79.4,49.4,30.18,South,170,0.0,0.0,35,0.00,CLR,SCT,0.00,WeatherDisplay:10.37,2013-03-30 18:39:00,
2013-03-30 14:40:00,79.3,50.0,30.18,SSE,166,1.1,0.0,36,0.00,CLR,SCT,0.00,WeatherDisplay:10.37,2013-03-30 18:40:00,
2013-03-30 14:43:00,79.3,50.0,30.18,NW,319,1.1,1.1,36,0.00,CLR,SCT,0.00,WeatherDisplay:10.37,2013-03-30 18:43:00,
2013-03-30 14:44:00,79.3,50.0,30.18,SSE,156,3.0,3.0,36,0.00,CLR,SCT,0.00,WeatherDisplay:10.37,2013-03-30 18:44:00,
2013-03-30 14:45:00,79.3,50.0,30.18,SSE,154,3.5,3.5,36,0.00,CLR,SCT,0.00,WeatherDisplay:10.37,2013-03-30 18:45:00,
2013-03-30 14:49:00,79.2,49.9,30.18,South,186,1.0,1.0,36,0.00,CLR,SCT,0.00,WeatherDisplay:10.37,2013-03-30 18:49:00,
2013-03-30 14:51:00,79.1,49.8,30.18,SSE,158,3.5,3.5,36,0.00,CLR,SCT,0.00,WeatherDisplay:10.37,2013-03-30 18:51:00,
2013-03-30 14:54:00,79.0,50.5,30.18,SSW,201,3.5,3.5,37,0.00,CLR,SCT,0.00,WeatherDisplay:10.37,2013-03-30 18:54:00,
2013-03-30 14:56:00,79.2,49.9,30.18,SSE,150,4.6,4.6,36,0.00,CLR,SCT,0.00,WeatherDisplay:10.37,2013-03-30 18:56:00,
2013-03-30 14:59:00,79.5,50.2,30.18,SSE,150,2.3,2.3,36,0.00,CLR,SCT,0.00,WeatherDisplay:10.37,2013-03-30 18:59:00,
2013-03-30 15:03:00,79.6,50.3,30.17,SSE,153,3.5,3.5,36,0.00,CLR,SCT,0.00,WeatherDisplay:10.37,2013-03-30 19:03:00,
2013-03-30 15:04:00,79.6,50.3,30.17,SSW,212,3.5,3.5,36,0.00,CLR,SCT,0.00,WeatherDisplay:10.37,2013-03-30 19:04:00,
2013-03-30 15:08:00,80.2,50.8,30.17,SSE,156,4.6,4.6,36,0.00,CLR,SCT,0.00,WeatherDisplay:10.37,2013-03-30 19:08:00,
2013-03-30 15:09:00,80.1,50.7,30.17,SSW,201,4.6,4.6,36,0.00,CLR,SCT,0.00,WeatherDisplay:10.37,2013-03-30 19:09:00,
2013-03-30 15:10:00,80.1,50.7,30.17,SSW,210,3.5,3.5,36,0.00,CLR,SCT,0.00,WeatherDisplay:10.37,2013-03-30 19:10:00,
2013-03-30 15:13:00,79.9,50.6,30.17,ENE,67,1.1,1.1,36,0.00,CLR,SCT,0.00,WeatherDisplay:10.37,2013-03-30 19:13:00,
2013-03-30 15:14:00,79.9,50.6,30.17,NE,46,1.1,1.1,36,0.00,CLR,SCT,0.00,WeatherDisplay:10.37,2013-03-30 19:14:00,
2013-03-30 15:15:00,79.9,50.6,30.17,SE,136,2.3,2.3,36,0.00,CLR,SCT,0.00,WeatherDisplay:10.37,2013-03-30 19:15:00,
2013-03-30 15:18:00,80.0,50.6,30.17,SSW,194,3.5,3.5,36,0.00,CLR,SCT,0.00,WeatherDisplay:10.37,2013-03-30 19:18:00,
2013-03-30 15:19:00,80.0,50.6,30.17,SSW,198,3.5,3.5,36,0.00,CLR,SCT,0.00,WeatherDisplay:10.37,2013-03-30 19:19:00,
2013-03-30 15:20:00,79.9,49.8,30.17,SSE,150,4.6,4.6,35,0.00,CLR,SCT,0.00,WeatherDisplay:10.37,2013-03-30 19:20:00,
2013-03-30 15:23:00,79.6,50.3,30.16,SSW,208,1.1,1.1,36,0.00,CLR,SCT,0.00,WeatherDisplay:10.37,2013-03-30 19:23:00,
2013-03-30 15:25:00,79.5,50.2,30.16,South,190,1.0,3.0,36,0.00,CLR,SCT,0.00,WeatherDisplay:10.37,2013-03-30 19:25:00,
2013-03-30 15:28:00,79.2,49.9,30.16,ESE,114,2.3,2.3,36,0.00,CLR,SCT,0.00,WeatherDisplay:10.37,2013-03-30 19:28:00,
2013-03-30 15:30:00,79.1,49.8,30.16,South,178,2.3,2.3,36,0.00,CLR,SCT,0.00,WeatherDisplay:10.37,2013-03-30 19:30:00,
2013-03-30 15:34:00,79.2,50.7,30.16,SE,136,4.6,4.6,37,0.00,CLR,SCT,0.00,WeatherDisplay:10.37,2013-03-30 19:34:00,
2013-03-30 15:35:00,79.4,50.9,30.16,WSW,243,3.5,3.5,37,0.00,CLR,SCT,0.00,WeatherDisplay:10.37,2013-03-30 19:35:00,
2013-03-30 15:36:00,79.6,51.0,30.16,SE,134,3.5,3.5,37,0.00,CLR,SCT,0.00,WeatherDisplay:10.37,2013-03-30 19:36:00,
2013-03-30 15:39:00,79.6,50.3,30.16,SSW,201,3.5,3.5,36,0.00,CLR,SCT,0.00,WeatherDisplay:10.37,2013-03-30 19:39:00,
2013-03-30 15:40:00,79.6,50.3,30.16,SSW,210,2.3,2.3,36,0.00,CLR,SCT,0.00,WeatherDisplay:10.37,2013-03-30 19:40:00,
2013-03-30 15:42:00,79.5,50.2,30.16,SE,141,1.1,1.1,36,0.00,CLR,SCT,0.00,WeatherDisplay:10.37,2013-03-30 19:42:00,
2013-03-30 15:44:00,79.4,50.1,30.16,SSE,167,4.6,4.6,36,0.00,CLR,SCT,0.00,WeatherDisplay:10.37,2013-03-30 19:44:00,
2013-03-30 15:45:00,79.2,49.9,30.15,South,172,4.0,4.0,36,0.00,CLR,SCT,0.00,WeatherDisplay:10.37,2013-03-30 19:45:00,
2013-03-30 15:47:00,79.0,49.8,30.15,ESE,102,2.3,2.3,36,0.00,CLR,SCT,0.00,WeatherDisplay:10.37,2013-03-30 19:47:00,
2013-03-30 15:49:00,78.8,50.3,30.15,SSW,197,2.3,0.0,37,0.00,CLR,SCT,0.00,WeatherDisplay:10.37,2013-03-30 19:49:00,
2013-03-30 15:50:00,78.8,50.3,30.15,South,184,0.0,0.0,37,0.00,CLR,SCT,0.00,WeatherDisplay:10.37,2013-03-30 19:50:00,
2013-03-30 15:52:00,79.0,50.5,30.15,SSE,167,1.1,1.1,37,0.00,CLR,SCT,0.00,WeatherDisplay:10.37,2013-03-30 19:52:00,
2013-03-30 15:54:00,79.5,50.2,30.15,SSW,212,2.0,2.0,36,0.00,CLR,SCT,0.00,WeatherDisplay:10.37,2013-03-30 19:54:00,
2013-03-30 15:55:00,79.7,50.4,30.15,East,99,3.5,3.5,36,0.00,CLR,SCT,0.00,WeatherDisplay:10.37,2013-03-30 19:55:00,
2013-03-30 15:56:00,79.7,50.4,30.15,SE,142,3.5,3.5,36,0.00,CLR,SCT,0.00,WeatherDisplay:10.37,2013-03-30 19:56:00,
2013-03-30 15:57:00,79.8,50.5,30.15,SW,228,3.5,3.5,36,0.00,CLR,SCT,0.00,WeatherDisplay:10.37,2013-03-30 19:57:00,
2013-03-30 15:59:00,79.6,50.3,30.15,SW,228,1.1,1.1,36,0.00,CLR,SCT,0.00,WeatherDisplay:10.37,2013-03-30 19:59:00,
2013-03-30 16:00:00,79.5,50.2,30.15,SSW,212,0.0,0.1,36,0.00,CLR,SCT,0.00,WeatherDisplay:10.37,2013-03-30 20:00:00,
2013-03-30 16:01:00,79.4,50.1,30.15,SSE,160,1.1,1.1,36,0.00,CLR,SCT,0.00,WeatherDisplay:10.37,2013-03-30 20:01:00,
2013-03-30 16:02:00,79.4,50.1,30.15,SSE,159,1.1,1.1,36,0.00,CLR,SCT,0.00,WeatherDisplay:10.37,2013-03-30 20:02:00,
2013-03-30 16:04:00,79.5,50.2,30.14,SSE,154,1.1,0.0,36,0.00,CLR,SCT,0.00,WeatherDisplay:10.37,2013-03-30 20:04:00,
2013-03-30 16:05:00,79.7,50.4,30.14,SSE,159,2.3,2.3,36,0.00,CLR,SCT,0.00,WeatherDisplay:10.37,2013-03-30 20:05:00,
2013-03-30 16:07:00,79.9,50.6,30.14,SSE,167,1.1,0.0,36,0.00,CLR,SCT,0.00,WeatherDisplay:10.37,2013-03-30 20:07:00,
2013-03-30 16:08:00,80.0,51.4,30.14,SW,225,2.3,2.3,37,0.00,CLR,SCT,0.00,WeatherDisplay:10.37,2013-03-30 20:08:00,
2013-03-30 16:09:00,80.1,50.7,30.14,SW,214,4.6,4.6,36,0.00,CLR,SCT,0.00,WeatherDisplay:10.37,2013-03-30 20:09:00,
2013-03-30 16:12:00,80.1,50.7,30.14,South,173,2.3,2.3,36,0.00,CLR,SCT,0.00,WeatherDisplay:10.37,2013-03-30 20:12:00,
2013-03-30 16:13:00,80.1,50.7,30.14,SE,143,3.5,3.5,36,0.00,CLR,SCT,0.00,WeatherDisplay:10.37,2013-03-30 20:13:00,
2013-03-30 16:14:00,80.4,51.0,30.14,SW,217,2.3,2.3,36,0.00,CLR,SCT,0.00,WeatherDisplay:10.37,2013-03-30 20:14:00,
2013-03-30 16:17:00,80.9,51.4,30.14,SSE,150,2.3,2.3,36,0.00,CLR,SCT,0.00,WeatherDisplay:10.37,2013-03-30 20:17:00,
2013-03-30 16:18:00,81.0,51.5,30.14,SSE,150,3.5,3.5,36,0.00,CLR,SCT,0.00,WeatherDisplay:10.37,2013-03-30 20:18:00,
2013-03-30 16:19:00,81.0,50.8,30.14,South,190,3.0,3.0,35,0.00,CLR,SCT,0.00,WeatherDisplay:10.37,2013-03-30 20:19:00,
2013-03-30 16:22:00,80.8,51.4,30.14,WSW,244,2.3,2.3,36,0.00,CLR,SCT,0.00,WeatherDisplay:10.37,2013-03-30 20:22:00,
2013-03-30 16:23:00,80.8,51.4,30.14,WSW,243,1.1,0.0,36,0.00,CLR,SCT,0.00,WeatherDisplay:10.37,2013-03-30 20:23:00,
2013-03-30 16:25:00,80.5,51.1,30.14,WSW,246,3.5,3.5,36,0.00,CLR,SCT,0.00,WeatherDisplay:10.37,2013-03-30 20:25:00,
2013-03-30 16:28:00,80.0,50.6,30.14,ESE,123,2.3,0.0,36,0.00,CLR,SCT,0.00,WeatherDisplay:10.37,2013-03-30 20:28:00,
2013-03-30 16:30:00,79.7,50.4,30.14,SSW,204,2.3,2.3,36,0.00,CLR,SCT,0.00,WeatherDisplay:10.37,2013-03-30 20:30:00,
2013-03-30 16:33:00,79.5,50.2,30.14,SE,142,1.1,1.1,36,0.00,CLR,SCT,0.00,WeatherDisplay:10.37,2013-03-30 20:33:00,
2013-03-30 16:35:00,79.6,51.0,30.14,SE,131,0.0,0.0,37,0.00,CLR,SCT,0.00,WeatherDisplay:10.37,2013-03-30 20:35:00,
2013-03-30 16:38:00,79.7,50.4,30.13,WSW,252,1.1,1.1,36,0.00,CLR,SCT,0.00,WeatherDisplay:10.37,2013-03-30 20:38:00,
2013-03-30 16:40:00,79.9,50.6,30.13,SE,143,3.5,3.5,36,0.00,CLR,SCT,0.00,WeatherDisplay:10.37,2013-03-30 20:40:00,
2013-03-30 16:43:00,80.5,51.1,30.13,SW,217,1.1,1.1,36,0.00,CLR,SCT,0.00,WeatherDisplay:10.37,2013-03-30 20:43:00,
2013-03-30 16:44:00,80.6,50.4,30.13,SSW,204,3.5,3.5,35,0.00,CLR,SCT,0.00,WeatherDisplay:10.37,2013-03-30 20:44:00,
2013-03-30 16:46:00,80.8,50.6,30.13,South,172,1.1,1.1,35,0.00,CLR,SCT,0.00,WeatherDisplay:10.37,2013-03-30 20:46:00,
2013-03-30 16:48:00,80.8,49.8,30.13,WSW,250,0.0,0.7,34,0.00,CLR,SCT,0.00,WeatherDisplay:10.37,2013-03-30 20:48:00,
2013-03-30 16:49:00,80.8,50.6,30.13,South,173,2.3,2.3,35,0.00,CLR,SCT,0.00,WeatherDisplay:10.37,2013-03-30 20:49:00,
2013-03-30 16:52:00,80.8,50.6,30.13,SSW,213,3.5,3.5,35,0.00,CLR,SCT,0.00,WeatherDisplay:10.37,2013-03-30 20:52:00,
2013-03-30 16:53:00,80.9,50.7,30.13,SE,143,4.0,4.0,35,0.00,CLR,SCT,0.00,WeatherDisplay:10.37,2013-03-30 20:53:00,
2013-03-30 16:54:00,80.9,50.7,30.13,SE,141,3.5,3.5,35,0.00,CLR,SCT,0.00,WeatherDisplay:10.37,2013-03-30 20:54:00,
2013-03-30 16:57:00,81.1,50.1,30.13,SSW,198,3.5,3.5,34,0.00,CLR,SCT,0.00,WeatherDisplay:10.37,2013-03-30 20:57:00,
2013-03-30 16:59:00,81.3,51.0,30.13,SE,131,3.5,3.5,35,0.00,CLR,SCT,0.00,WeatherDisplay:10.37,2013-03-30 20:59:00,
2013-03-30 17:02:00,81.3,50.2,30.13,SSE,151,5.8,5.8,34,0.00,CLR,SCT,0.00,WeatherDisplay:10.37,2013-03-30 21:02:00,
2013-03-30 17:04:00,81.1,50.1,30.13,South,191,2.3,2.3,34,0.00,CLR,SCT,0.00,WeatherDisplay:10.37,2013-03-30 21:04:00,
2013-03-30 17:08:00,81.3,51.0,30.13,SSE,159,2.3,2.3,35,0.00,CLR,SCT,0.00,WeatherDisplay:10.37,2013-03-30 21:08:00,
2013-03-30 17:09:00,81.4,51.1,30.13,West,261,2.3,2.3,35,0.00,CLR,SCT,0.00,WeatherDisplay:10.37,2013-03-30 21:09:00,
2013-03-30 17:13:00,81.3,50.2,30.12,WSW,256,0.0,0.0,34,0.00,CLR,SCT,0.00,WeatherDisplay:10.37,2013-03-30 21:13:00,
2013-03-30 17:14:00,81.2,50.2,30.12,SE,125,1.1,0.0,34,0.00,CLR,SCT,0.00,WeatherDisplay:10.37,2013-03-30 21:14:00,
2013-03-30 17:15:00,81.0,50.0,30.12,SE,141,1.1,1.1,34,0.00,CLR,SCT,0.00,WeatherDisplay:10.37,2013-03-30 21:15:00,
2013-03-30 17:18:00,81.0,50.8,30.12,SSE,159,1.1,1.1,35,0.00,CLR,SCT,0.00,WeatherDisplay:10.37,2013-03-30 21:18:00,
2013-03-30 17:19:00,81.0,50.8,30.12,SE,126,1.1,1.1,35,0.00,CLR,SCT,0.00,WeatherDisplay:10.37,2013-03-30 21:19:00,
2013-03-30 17:20:00,81.0,50.0,30.12,SSE,150,1.1,1.1,34,0.00,CLR,SCT,0.00,WeatherDisplay:10.37,2013-03-30 21:20:00,
2013-03-30 17:23:00,81.4,51.1,30.12,SE,145,3.5,3.5,35,0.00,CLR,SCT,0.00,WeatherDisplay:10.37,2013-03-30 21:23:00,
2013-03-30 17:24:00,81.5,51.2,30.12,ESE,122,3.5,3.5,35,0.00,CLR,SCT,0.00,WeatherDisplay:10.37,2013-03-30 21:24:00,
2013-03-30 17:25:00,81.6,51.3,30.12,SE,124,3.5,3.5,35,0.00,CLR,SCT,0.00,WeatherDisplay:10.37,2013-03-30 21:25:00,
2013-03-30 17:28:00,81.9,50.8,30.12,SSE,148,3.5,3.5,34,0.00,CLR,SCT,0.00,WeatherDisplay:10.37,2013-03-30 21:28:00,
2013-03-30 17:29:00,81.9,50.8,30.12,SE,144,3.5,3.5,34,0.00,CLR,SCT,0.00,WeatherDisplay:10.37,2013-03-30 21:29:00,
2013-03-30 17:30:00,81.9,50.8,30.12,SSW,194,3.5,3.5,34,0.00,CLR,SCT,0.00,WeatherDisplay:10.37,2013-03-30 21:30:00,
2013-03-30 17:33:00,82.0,50.9,30.12,ESE,114,1.1,1.1,34,0.00,CLR,SCT,0.00,WeatherDisplay:10.37,2013-03-30 21:33:00,
2013-03-30 17:35:00,82.0,50.9,30.12,SW,227,3.5,3.5,34,0.00,CLR,SCT,0.00,WeatherDisplay:10.37,2013-03-30 21:35:00,
2013-03-30 17:39:00,82.4,51.2,30.12,SE,128,1.1,1.1,34,0.00,CLR,SCT,0.00,WeatherDisplay:10.37,2013-03-30 21:39:00,
2013-03-30 17:40:00,82.6,51.4,30.12,SSW,210,1.1,1.1,34,0.00,CLR,SCT,0.00,WeatherDisplay:10.37,2013-03-30 21:40:00,
2013-03-30 17:44:00,82.9,51.6,30.12,ESE,117,1.1,1.1,34,0.00,CLR,SCT,0.00,WeatherDisplay:10.37,2013-03-30 21:44:00,
2013-03-30 17:45:00,83.0,51.7,30.12,South,191,2.0,2.0,34,0.00,CLR,SCT,0.00,WeatherDisplay:10.37,2013-03-30 21:45:00,
2013-03-30 17:49:00,82.7,51.5,30.12,SE,136,1.1,1.1,34,0.00,CLR,SCT,0.00,WeatherDisplay:10.37,2013-03-30 21:49:00,
2013-03-30 17:50:00,82.4,50.4,30.12,SW,214,3.5,3.5,33,0.00,CLR,SCT,0.00,WeatherDisplay:10.37,2013-03-30 21:50:00,
2013-03-30 17:51:00,82.3,51.1,30.12,South,169,3.5,3.5,34,0.00,CLR,SCT,0.00,WeatherDisplay:10.37,2013-03-30 21:51:00,
2013-03-30 17:54:00,81.5,50.4,30.12,SE,141,3.5,3.5,34,0.00,CLR,SCT,0.00,WeatherDisplay:10.37,2013-03-30 21:54:00,
2013-03-30 17:55:00,81.2,50.2,30.12,SE,133,2.3,2.3,34,0.00,CLR,SCT,0.00,WeatherDisplay:10.37,2013-03-30 21:55:00,
2013-03-30 17:56:00,80.9,50.7,30.12,WSW,240,2.3,2.3,35,0.00,CLR,SCT,0.00,WeatherDisplay:10.37,2013-03-30 21:56:00,
2013-03-30 17:59:00,80.2,50.1,30.12,SW,232,2.3,2.3,35,0.00,CLR,SCT,0.00,WeatherDisplay:10.37,2013-03-30 21:59:00,
2013-03-30 18:00:00,80.0,50.6,30.12,SE,125,2.3,2.3,36,0.00,CLR,SCT,0.00,WeatherDisplay:10.37,2013-03-30 22:00:00,
2013-03-30 18:01:00,79.9,50.6,30.12,SSE,157,2.3,2.3,36,0.00,CLR,SCT,0.00,WeatherDisplay:10.37,2013-03-30 22:01:00,
2013-03-30 18:02:00,79.8,50.5,30.12,SSE,148,2.0,2.0,36,0.00,CLR,SCT,0.00,WeatherDisplay:10.37,2013-03-30 22:02:00,
2013-03-30 18:04:00,79.4,50.1,30.12,SSE,167,2.3,2.3,36,0.00,CLR,SCT,0.00,WeatherDisplay:10.37,2013-03-30 22:04:00,
2013-03-30 18:06:00,79.1,50.6,30.12,SSW,198,3.5,3.5,37,0.00,CLR,SCT,0.00,WeatherDisplay:10.37,2013-03-30 22:06:00,
2013-03-30 18:07:00,79.0,49.8,30.12,SSW,195,3.5,3.5,36,0.00,CLR,SCT,0.00,WeatherDisplay:10.37,2013-03-30 22:07:00,
2013-03-30 18:09:00,78.7,50.2,30.12,SW,232,2.3,2.3,37,0.00,CLR,SCT,0.00,WeatherDisplay:10.37,2013-03-30 22:09:00,
2013-03-30 18:11:00,78.5,50.1,30.12,South,177,3.5,3.5,37,0.00,CLR,SCT,0.00,WeatherDisplay:10.37,2013-03-30 22:11:00,
2013-03-30 18:12:00,78.5,50.1,30.12,South,176,2.3,2.3,37,0.00,CLR,SCT,0.00,WeatherDisplay:10.37,2013-03-30 22:12:00,
2013-03-30 18:15:00,78.4,50.0,30.12,ESE,123,1.1,1.1,37,0.00,CLR,SCT,0.00,WeatherDisplay:10.37,2013-03-30 22:15:00,
2013-03-30 18:17:00,78.3,50.6,30.12,SSE,151,3.5,3.5,38,0.00,CLR,SCT,0.00,WeatherDisplay:10.37,2013-03-30 22:17:00,
2013-03-30 18:20:00,78.3,50.6,30.12,South,170,1.0,1.0,38,0.00,CLR,SCT,0.00,WeatherDisplay:10.37,2013-03-30 22:20:00,
2013-03-30 18:22:00,78.2,50.5,30.12,SSE,160,1.1,1.1,38,0.00,CLR,SCT,0.00,WeatherDisplay:10.37,2013-03-30 22:22:00,
2013-03-30 18:25:00,78.1,50.4,30.12,SSE,150,2.3,2.3,38,0.00,CLR,SCT,0.00,WeatherDisplay:10.37,2013-03-30 22:25:00,
2013-03-30 18:27:00,78.1,50.4,30.12,SW,218,2.3,2.3,38,0.00,CLR,SCT,0.00,WeatherDisplay:10.37,2013-03-30 22:27:00,
2013-03-30 18:31:00,77.9,50.2,30.12,SSW,205,2.3,2.3,38,0.00,CLR,SCT,0.00,WeatherDisplay:10.37,2013-03-30 22:31:00,
2013-03-30 18:32:00,77.8,50.9,30.13,South,191,2.3,2.3,39,0.00,CLR,SCT,0.00,WeatherDisplay:10.37,2013-03-30 22:32:00,
2013-03-30 18:33:00,77.8,50.9,30.13,South,186,2.3,2.3,39,0.00,CLR,SCT,0.00,WeatherDisplay:10.37,2013-03-30 22:33:00,
2013-03-30 18:36:00,77.6,52.0,30.13,SSE,159,1.1,0.0,41,0.00,CLR,SCT,0.00,WeatherDisplay:10.37,2013-03-30 22:36:00,
2013-03-30 18:37:00,77.6,52.7,30.13,SSE,159,0.0,0.0,42,0.00,CLR,SCT,0.00,WeatherDisplay:10.37,2013-03-30 22:37:00,
2013-03-30 18:38:00,77.6,52.7,30.13,SSE,159,0.0,0.0,42,0.00,CLR,SCT,0.00,WeatherDisplay:10.37,2013-03-30 22:38:00,
2013-03-30 18:41:00,77.5,52.6,30.13,South,169,0.0,0.0,42,0.00,CLR,SCT,0.00,WeatherDisplay:10.37,2013-03-30 22:41:00,
2013-03-30 18:42:00,77.5,51.3,30.13,SSE,150,2.3,2.3,40,0.00,CLR,SCT,0.00,WeatherDisplay:10.37,2013-03-30 22:42:00,
2013-03-30 18:43:00,77.5,51.3,30.13,SSE,150,2.3,2.3,40,0.00,CLR,SCT,0.00,WeatherDisplay:10.37,2013-03-30 22:43:00,
2013-03-30 18:47:00,77.2,50.3,30.13,WNW,287,1.1,1.1,39,0.00,CLR,SCT,0.00,WeatherDisplay:10.37,2013-03-30 22:47:00,
2013-03-30 18:48:00,77.2,51.0,30.13,SW,218,2.3,2.3,40,0.00,CLR,SCT,0.00,WeatherDisplay:10.37,2013-03-30 22:48:00,
2013-03-30 18:52:00,76.9,50.7,30.13,SSW,194,2.3,2.3,40,0.00,CLR,SCT,0.00,WeatherDisplay:10.37,2013-03-30 22:52:00,
2013-03-30 18:53:00,76.9,50.7,30.13,SE,146,1.1,0.0,40,0.00,CLR,SCT,0.00,WeatherDisplay:10.37,2013-03-30 22:53:00,
2013-03-30 18:58:00,76.7,50.6,30.13,SE,129,0.0,0.0,40,0.00,CLR,SCT,0.00,WeatherDisplay:10.37,2013-03-30 22:58:00,
2013-03-30 19:03:00,76.6,51.1,30.13,ENE,67,0.0,0.1,41,0.00,CLR,SCT,0.00,WeatherDisplay:10.37,2013-03-30 23:03:00,
2013-03-30 19:08:00,76.4,50.3,30.13,ENE,74,2.0,2.0,40,0.00,CLR,SCT,0.00,WeatherDisplay:10.37,2013-03-30 23:08:00,
2013-03-30 19:13:00,76.1,50.0,30.13,SW,224,1.1,1.1,40,0.00,CLR,SCT,0.00,WeatherDisplay:10.37,2013-03-30 23:13:00,
2013-03-30 19:14:00,76.1,50.0,30.13,SW,224,1.1,0.0,40,0.00,CLR,SCT,0.00,WeatherDisplay:10.37,2013-03-30 23:14:00,
2013-03-30 19:18:00,75.6,48.9,30.14,SSE,157,1.1,1.1,39,0.00,CLR,SCT,0.00,WeatherDisplay:10.37,2013-03-30 23:18:00,
2013-03-30 19:19:00,75.6,48.9,30.14,SSE,150,1.1,1.1,39,0.00,CLR,SCT,0.00,WeatherDisplay:10.37,2013-03-30 23:19:00,
2013-03-30 19:24:00,75.1,49.1,30.14,WNW,284,1.1,1.1,40,0.00,CLR,SCT,0.00,WeatherDisplay:10.37,2013-03-30 23:24:00,
2013-03-30 19:29:00,74.3,48.4,30.14,NNE,30,2.3,2.3,40,0.00,CLR,SCT,0.00,WeatherDisplay:10.37,2013-03-30 23:29:00,
2013-03-30 19:34:00,73.5,47.7,30.15,WNW,290,1.1,0.0,40,0.00,CLR,SCT,0.00,WeatherDisplay:10.37,2013-03-30 23:34:00,
2013-03-30 19:39:00,72.9,47.2,30.15,East,101,2.0,2.0,40,0.00,CLR,SCT,0.00,WeatherDisplay:10.37,2013-03-30 23:39:00,
2013-03-30 19:44:00,72.2,47.2,30.15,NE,38,1.1,0.0,41,0.00,CLR,SCT,0.00,WeatherDisplay:10.37,2013-03-30 23:44:00,
2013-03-30 19:49:00,71.6,46.6,30.15,ESE,102,1.1,0.0,41,0.00,CLR,SCT,0.00,WeatherDisplay:10.37,2013-03-30 23:49:00,
2013-03-30 19:50:00,71.6,46.6,30.15,ESE,110,0.0,0.0,41,0.00,CLR,SCT,0.00,WeatherDisplay:10.37,2013-03-30 23:50:00,
2013-03-30 19:54:00,70.9,46.0,30.15,ENE,61,0.0,0.0,41,0.00,CLR,SCT,0.00,WeatherDisplay:10.37,2013-03-30 23:54:00,
2013-03-30 19:55:00,70.9,46.0,30.15,ENE,61,0.0,0.0,41,0.00,CLR,SCT,0.00,WeatherDisplay:10.37,2013-03-30 23:55:00,
2013-03-30 20:00:00,70.4,46.2,30.15,ENE,74,0.0,0.0,42,0.00,CLR,SCT,0.00,WeatherDisplay:10.37,2013-03-31 00:00:00,
2013-03-30 20:05:00,69.8,46.3,30.16,North,356,0.0,0.0,43,0.00,CLR,SCT,0.00,WeatherDisplay:10.37,2013-03-31 00:05:00,
2013-03-30 20:10:00,69.2,46.4,30.16,NW,315,1.1,1.1,44,0.00,CLR,SCT,0.00,WeatherDisplay:10.37,2013-03-31 00:10:00,
2013-03-30 20:15:00,68.7,46.5,30.16,NW,315,0.0,0.0,45,0.00,CLR,SCT,0.00,WeatherDisplay:10.37,2013-03-31 00:15:00,
2013-03-30 20:16:00,68.6,46.4,30.16,NW,314,0.0,0.0,45,0.00,CLR,SCT,0.00,WeatherDisplay:10.37,2013-03-31 00:16:00,
2013-03-30 20:20:00,68.1,46.5,30.16,NNW,327,0.0,0.1,46,0.00,CLR,SCT,0.00,WeatherDisplay:10.37,2013-03-31 00:20:00,
2013-03-30 20:22:00,68.0,46.4,30.16,North,6,1.1,1.1,46,0.00,CLR,SCT,0.00,WeatherDisplay:10.37,2013-03-31 00:22:00,
2013-03-30 20:25:00,67.7,46.7,30.16,NW,308,0.0,0.0,47,0.00,CLR,SCT,0.00,WeatherDisplay:10.37,2013-03-31 00:25:00,
2013-03-30 20:26:00,67.7,46.7,30.16,NW,308,1.1,0.0,47,0.00,CLR,SCT,0.00,WeatherDisplay:10.37,2013-03-31 00:26:00,
2013-03-30 20:27:00,67.7,46.7,30.16,NE,39,0.0,0.0,47,0.00,CLR,SCT,0.00,WeatherDisplay:10.37,2013-03-31 00:27:00,
2013-03-30 20:30:00,67.5,46.6,30.16,ENE,70,0.0,0.0,47,0.00,CLR,SCT,0.00,WeatherDisplay:10.37,2013-03-31 00:30:00,
2013-03-30 20:31:00,67.5,46.6,30.16,West,280,3.5,3.5,47,0.00,CLR,SCT,0.00,WeatherDisplay:10.37,2013-03-31 00:31:00,
2013-03-30 20:32:00,67.4,47.0,30.17,WNW,286,3.5,0.0,48,0.00,CLR,SCT,0.00,WeatherDisplay:10.37,2013-03-31 00:32:00,
2013-03-30 20:37:00,67.3,46.9,30.17,WNW,290,0.0,0.0,48,0.00,CLR,SCT,0.00,WeatherDisplay:10.37,2013-03-31 00:37:00,
2013-03-30 20:42:00,66.9,47.1,30.17,NNW,333,0.0,0.0,49,0.00,CLR,SCT,0.00,WeatherDisplay:10.37,2013-03-31 00:42:00,
2013-03-30 20:43:00,66.8,47.0,30.17,NNW,335,0.0,0.0,49,0.00,CLR,SCT,0.00,WeatherDisplay:10.37,2013-03-31 00:43:00,
2013-03-30 20:47:00,66.4,47.2,30.17,North,1,0.0,0.0,50,0.00,CLR,SCT,0.00,WeatherDisplay:10.37,2013-03-31 00:47:00,
2013-03-30 20:48:00,66.4,47.2,30.17,North,1,0.0,0.0,50,0.00,CLR,SCT,0.00,WeatherDisplay:10.37,2013-03-31 00:48:00,
2013-03-30 20:52:00,66.0,47.3,30.17,North,5,0.0,0.0,51,0.00,CLR,SCT,0.00,WeatherDisplay:10.37,2013-03-31 00:52:00,
2013-03-30 20:53:00,65.9,47.3,30.17,North,6,0.0,0.0,51,0.00,CLR,SCT,0.00,WeatherDisplay:10.37,2013-03-31 00:53:00,
2013-03-30 20:57:00,65.6,47.5,30.17,North,356,0.0,0.0,52,0.00,CLR,SCT,0.00,WeatherDisplay:10.37,2013-03-31 00:57:00,
2013-03-30 20:58:00,65.6,47.5,30.17,North,356,0.0,0.0,52,0.00,CLR,SCT,0.00,WeatherDisplay:10.37,2013-03-31 00:58:00,
2013-03-30 21:03:00,65.2,47.6,30.17,North,356,0.0,0.0,53,0.00,CLR,SCT,0.00,WeatherDisplay:10.37,2013-03-31 01:03:00,
2013-03-30 21:08:00,64.9,47.9,30.18,East,79,0.0,0.0,54,0.00,CLR,SCT,0.00,WeatherDisplay:10.37,2013-03-31 01:08:00,
2013-03-30 21:09:00,64.8,47.8,30.17,East,79,0.0,0.0,54,0.00,CLR,SCT,0.00,WeatherDisplay:10.37,2013-03-31 01:09:00,
2013-03-30 21:13:00,64.6,48.1,30.17,East,79,0.0,0.0,55,0.00,CLR,SCT,0.00,WeatherDisplay:10.37,2013-03-31 01:13:00,
2013-03-30 21:14:00,64.5,48.0,30.18,East,79,0.0,0.0,55,0.00,CLR,SCT,0.00,WeatherDisplay:10.37,2013-03-31 01:14:00,
2013-03-30 21:18:00,64.3,48.3,30.18,ENE,76,0.0,0.0,56,0.00,CLR,SCT,0.00,WeatherDisplay:10.37,2013-03-31 01:18:00,
2013-03-30 21:19:00,64.3,48.3,30.18,ENE,76,0.0,0.0,56,0.00,CLR,SCT,0.00,WeatherDisplay:10.37,2013-03-31 01:19:00,
2013-03-30 21:23:00,64.1,49.0,30.18,East,97,1.1,1.1,58,0.00,CLR,SCT,0.00,WeatherDisplay:10.37,2013-03-31 01:23:00,
2013-03-30 21:24:00,64.1,49.0,30.18,East,96,0.0,0.0,58,0.00,CLR,SCT,0.00,WeatherDisplay:10.37,2013-03-31 01:24:00,
2013-03-30 21:28:00,64.0,49.4,30.18,East,96,0.0,0.0,59,0.00,CLR,SCT,0.00,WeatherDisplay:10.37,2013-03-31 01:28:00,
2013-03-30 21:29:00,63.9,49.3,30.18,East,96,0.0,0.0,59,0.00,CLR,SCT,0.00,WeatherDisplay:10.37,2013-03-31 01:29:00,
2013-03-30 21:33:00,63.7,49.1,30.18,East,96,0.0,0.0,59,0.00,CLR,SCT,0.00,WeatherDisplay:10.37,2013-03-31 01:33:00,
2013-03-30 21:34:00,63.7,49.5,30.18,East,96,0.0,0.0,60,0.00,CLR,SCT,0.00,WeatherDisplay:10.37,2013-03-31 01:34:00,
2013-03-30 21:35:00,63.7,49.5,30.18,SW,225,1.0,1.0,60,0.00,CLR,SCT,0.00,WeatherDisplay:10.37,2013-03-31 01:35:00,
2013-03-30 21:38:00,63.6,49.5,30.18,NNE,25,0.0,0.0,60,0.00,CLR,SCT,0.00,WeatherDisplay:10.37,2013-03-31 01:38:00,
2013-03-30 21:39:00,63.6,49.9,30.18,NNE,25,0.0,0.0,61,0.00,CLR,SCT,0.00,WeatherDisplay:10.37,2013-03-31 01:39:00,
2013-03-30 21:40:00,63.5,49.8,30.18,NNE,24,0.0,0.0,61,0.00,CLR,SCT,0.00,WeatherDisplay:10.37,2013-03-31 01:40:00,
2013-03-30 21:43:00,63.3,49.6,30.18,NNE,25,0.0,0.0,61,0.00,CLR,SCT,0.00,WeatherDisplay:10.37,2013-03-31 01:43:00,
2013-03-30 21:45:00,63.3,49.6,30.18,NNE,24,0.0,0.0,61,0.00,CLR,SCT,0.00,WeatherDisplay:10.37,2013-03-31 01:45:00,
2013-03-30 21:49:00,63.0,49.8,30.18,WSW,240,0.0,0.0,62,0.00,CLR,SCT,0.00,WeatherDisplay:10.37,2013-03-31 01:49:00,
2013-03-30 21:50:00,62.9,49.7,30.18,WSW,240,0.0,0.0,62,0.00,CLR,SCT,0.00,WeatherDisplay:10.37,2013-03-31 01:50:00,
2013-03-30 21:54:00,62.7,49.9,30.18,WSW,240,1.0,0.0,63,0.00,CLR,SCT,0.00,WeatherDisplay:10.37,2013-03-31 01:54:00,
2013-03-30 21:55:00,62.6,49.8,30.18,WSW,240,1.1,0.0,63,0.00,CLR,SCT,0.00,WeatherDisplay:10.37,2013-03-31 01:55:00,
2013-03-30 21:59:00,62.3,49.5,30.19,WSW,240,0.0,0.0,63,0.00,CLR,SCT,0.00,WeatherDisplay:10.37,2013-03-31 01:59:00,
2013-03-30 22:00:00,62.2,49.4,30.19,WSW,240,0.0,0.0,63,0.00,CLR,SCT,0.00,WeatherDisplay:10.37,2013-03-31 02:00:00,
2013-03-30 22:04:00,62.0,49.7,30.19,WSW,240,0.0,0.0,64,0.00,CLR,SCT,0.00,WeatherDisplay:10.37,2013-03-31 02:04:00,
2013-03-30 22:05:00,61.9,49.6,30.19,WSW,240,0.0,0.0,64,0.00,CLR,SCT,0.00,WeatherDisplay:10.37,2013-03-31 02:05:00,
2013-03-30 22:09:00,61.6,49.7,30.19,WSW,240,0.0,0.0,65,0.00,CLR,SCT,0.00,WeatherDisplay:10.37,2013-03-31 02:09:00,
2013-03-30 22:10:00,61.5,49.6,30.19,WSW,240,0.0,0.0,65,0.00,CLR,SCT,0.00,WeatherDisplay:10.37,2013-03-31 02:10:00,
2013-03-30 22:14:00,61.2,49.7,30.20,WSW,240,0.0,0.0,66,0.00,CLR,SCT,0.00,WeatherDisplay:10.37,2013-03-31 02:14:00,
2013-03-30 22:15:00,61.1,49.7,30.20,WSW,240,0.0,0.0,66,0.00,CLR,SCT,0.00,WeatherDisplay:10.37,2013-03-31 02:15:00,
2013-03-30 22:20:00,60.7,49.7,30.20,SW,214,0.0,0.0,67,0.00,CLR,SCT,0.00,WeatherDisplay:10.37,2013-03-31 02:20:00,
2013-03-30 22:21:00,60.6,49.6,30.20,SSW,212,0.0,0.0,67,0.00,CLR,SCT,0.00,WeatherDisplay:10.37,2013-03-31 02:21:00,
2013-03-30 22:25:00,60.3,49.3,30.20,SW,222,0.0,0.0,67,0.00,CLR,SCT,0.00,WeatherDisplay:10.37,2013-03-31 02:25:00,
2013-03-30 22:26:00,60.3,49.3,30.20,SW,222,1.1,0.0,67,0.00,CLR,SCT,0.00,WeatherDisplay:10.37,2013-03-31 02:26:00,
2013-03-30 22:30:00,60.1,49.5,30.20,SW,222,0.0,0.0,68,0.00,CLR,SCT,0.00,WeatherDisplay:10.37,2013-03-31 02:30:00,
2013-03-30 22:31:00,60.0,49.4,30.20,SW,222,0.0,0.0,68,0.00,CLR,SCT,0.00,WeatherDisplay:10.37,2013-03-31 02:31:00,
2013-03-30 22:32:00,60.0,49.4,30.20,SW,222,0.0,0.0,68,0.00,CLR,SCT,0.00,WeatherDisplay:10.37,2013-03-31 02:32:00,
2013-03-30 22:35:00,60.0,49.4,30.20,SW,222,0.0,0.0,68,0.00,CLR,SCT,0.00,WeatherDisplay:10.37,2013-03-31 02:35:00,
2013-03-30 22:36:00,60.0,49.4,30.20,SW,222,0.0,0.0,68,0.00,CLR,SCT,0.00,WeatherDisplay:10.37,2013-03-31 02:36:00,
2013-03-30 22:37:00,60.0,49.4,30.20,SW,222,0.0,0.0,68,0.00,CLR,SCT,0.00,WeatherDisplay:10.37,2013-03-31 02:37:00,
2013-03-30 22:40:00,60.0,49.4,30.20,SW,222,0.0,0.0,68,0.00,CLR,SCT,0.00,WeatherDisplay:10.37,2013-03-31 02:40:00,
2013-03-30 22:41:00,59.9,49.3,30.20,SW,222,0.0,0.0,68,0.00,CLR,SCT,0.00,WeatherDisplay:10.37,2013-03-31 02:41:00,
2013-03-30 22:42:00,59.9,49.3,30.20,SW,222,0.0,0.0,68,0.00,CLR,SCT,0.00,WeatherDisplay:10.37,2013-03-31 02:42:00,
2013-03-30 22:43:00,59.9,49.3,30.20,SW,222,0.0,0.0,68,0.00,CLR,SCT,0.00,WeatherDisplay:10.37,2013-03-31 02:43:00,
2013-03-30 22:45:00,59.8,49.6,30.20,SW,222,0.0,0.0,69,0.00,CLR,SCT,0.00,WeatherDisplay:10.37,2013-03-31 02:45:00,
2013-03-30 22:47:00,59.7,49.5,30.20,SW,222,0.0,0.0,69,0.00,CLR,SCT,0.00,WeatherDisplay:10.37,2013-03-31 02:47:00,
2013-03-30 22:48:00,59.7,49.5,30.20,SW,222,0.0,0.0,69,0.00,CLR,SCT,0.00,WeatherDisplay:10.37,2013-03-31 02:48:00,
2013-03-30 22:50:00,59.6,49.8,30.20,SW,222,0.0,0.0,70,0.00,CLR,SCT,0.00,WeatherDisplay:10.37,2013-03-31 02:50:00,
2013-03-30 22:52:00,59.7,49.9,30.20,SW,222,0.0,0.0,70,0.00,CLR,SCT,0.00,WeatherDisplay:10.37,2013-03-31 02:52:00,
2013-03-30 22:53:00,59.7,49.9,30.20,SW,222,0.0,0.0,70,0.00,CLR,SCT,0.00,WeatherDisplay:10.37,2013-03-31 02:53:00,
2013-03-30 22:55:00,59.8,50.0,30.20,SW,222,0.0,0.0,70,0.00,CLR,SCT,0.00,WeatherDisplay:10.37,2013-03-31 02:55:00,
2013-03-30 22:57:00,59.8,50.0,30.20,SW,222,0.0,0.0,70,0.00,CLR,SCT,0.00,WeatherDisplay:10.37,2013-03-31 02:57:00,
2013-03-30 22:58:00,59.8,50.0,30.20,SW,222,0.0,0.0,70,0.00,CLR,SCT,0.00,WeatherDisplay:10.37,2013-03-31 02:58:00,
2013-03-30 23:00:00,59.7,49.9,30.20,SW,222,0.0,0.0,70,0.00,CLR,SCT,0.00,WeatherDisplay:10.37,2013-03-31 03:00:00,
2013-03-30 23:02:00,59.7,49.9,30.20,SW,222,0.0,0.0,70,0.00,CLR,SCT,0.00,WeatherDisplay:10.37,2013-03-31 03:02:00,
2013-03-30 23:03:00,59.7,49.9,30.20,SW,222,0.0,0.0,70,0.00,CLR,SCT,0.00,WeatherDisplay:10.37,2013-03-31 03:03:00,
2013-03-30 23:05:00,59.5,49.7,30.20,SW,222,0.0,0.0,70,0.00,CLR,SCT,0.00,WeatherDisplay:10.37,2013-03-31 03:05:00,
2013-03-30 23:07:00,59.4,49.6,30.20,SW,222,0.0,0.0,70,0.00,CLR,SCT,0.00,WeatherDisplay:10.37,2013-03-31 03:07:00,
2013-03-30 23:08:00,59.4,49.6,30.20,SW,222,0.0,0.0,70,0.00,CLR,SCT,0.00,WeatherDisplay:10.37,2013-03-31 03:08:00,
2013-03-30 23:10:00,59.2,49.4,30.20,SW,222,0.0,0.0,70,0.00,CLR,SCT,0.00,WeatherDisplay:10.37,2013-03-31 03:10:00,
2013-03-30 23:13:00,59.1,49.7,30.20,SW,222,0.0,0.0,71,0.00,CLR,SCT,0.00,WeatherDisplay:10.37,2013-03-31 03:13:00,
2013-03-30 23:16:00,59.0,49.6,30.20,SW,222,0.0,0.0,71,0.00,CLR,SCT,0.00,WeatherDisplay:10.37,2013-03-31 03:16:00,
2013-03-30 23:18:00,58.9,49.9,30.20,SW,222,0.0,0.0,72,0.00,CLR,SCT,0.00,WeatherDisplay:10.37,2013-03-31 03:18:00,
2013-03-30 23:19:00,58.9,49.9,30.19,SW,222,0.0,0.0,72,0.00,CLR,SCT,0.00,WeatherDisplay:10.37,2013-03-31 03:19:00,
2013-03-30 23:21:00,58.8,49.8,30.19,SW,222,0.0,0.0,72,0.00,CLR,SCT,0.00,WeatherDisplay:10.37,2013-03-31 03:21:00,
2013-03-30 23:23:00,58.8,49.8,30.19,SW,222,0.0,0.0,72,0.00,CLR,SCT,0.00,WeatherDisplay:10.37,2013-03-31 03:23:00,
2013-03-30 23:24:00,58.8,49.8,30.19,SW,222,0.0,0.0,72,0.00,CLR,SCT,0.00,WeatherDisplay:10.37,2013-03-31 03:24:00,
2013-03-30 23:27:00,58.6,49.6,30.19,SW,222,0.0,0.0,72,0.00,CLR,SCT,0.00,WeatherDisplay:10.37,2013-03-31 03:27:00,
2013-03-30 23:28:00,58.6,49.6,30.19,SW,222,0.0,0.0,72,0.00,CLR,SCT,0.00,WeatherDisplay:10.37,2013-03-31 03:28:00,
2013-03-30 23:29:00,58.5,49.5,30.19,SW,222,0.0,0.0,72,0.00,CLR,SCT,0.00,WeatherDisplay:10.37,2013-03-31 03:29:00,
2013-03-30 23:32:00,58.4,49.4,30.19,SW,222,0.0,0.0,72,0.00,CLR,SCT,0.00,WeatherDisplay:10.37,2013-03-31 03:32:00,
2013-03-30 23:33:00,58.3,49.3,30.19,SW,222,0.0,0.0,72,0.00,CLR,SCT,0.00,WeatherDisplay:10.37,2013-03-31 03:33:00,
2013-03-30 23:34:00,58.3,49.3,30.19,SW,222,0.0,0.0,72,0.00,CLR,SCT,0.00,WeatherDisplay:10.37,2013-03-31 03:34:00,
2013-03-30 23:37:00,58.1,49.5,30.20,SW,222,0.0,0.0,73,0.00,CLR,SCT,0.00,WeatherDisplay:10.37,2013-03-31 03:37:00,
2013-03-30 23:39:00,58.0,49.4,30.20,SW,222,0.0,0.0,73,0.00,CLR,SCT,0.00,WeatherDisplay:10.37,2013-03-31 03:39:00,
2013-03-30 23:40:00,58.0,49.8,30.20,SW,222,0.0,0.0,74,0.00,CLR,SCT,0.00,WeatherDisplay:10.37,2013-03-31 03:40:00,
2013-03-30 23:43:00,57.9,50.0,30.20,SW,222,0.0,0.0,75,0.00,CLR,SCT,0.00,WeatherDisplay:10.37,2013-03-31 03:43:00,
2013-03-30 23:44:00,57.9,50.0,30.20,SW,222,0.0,0.0,75,0.00,CLR,SCT,0.00,WeatherDisplay:10.37,2013-03-31 03:44:00,
2013-03-30 23:45:00,57.8,49.9,30.20,SW,222,0.0,0.0,75,0.00,CLR,SCT,0.00,WeatherDisplay:10.37,2013-03-31 03:45:00,
2013-03-30 23:48:00,57.9,50.4,30.19,SW,222,1.1,1.1,76,0.00,CLR,SCT,0.00,WeatherDisplay:10.37,2013-03-31 03:48:00,
2013-03-30 23:49:00,57.9,50.4,30.20,SW,222,0.0,0.0,76,0.00,CLR,SCT,0.00,WeatherDisplay:10.37,2013-03-31 03:49:00,
2013-03-30 23:50:00,58.1,50.6,30.20,SW,222,1.0,0.0,76,0.00,CLR,SCT,0.00,WeatherDisplay:10.37,2013-03-31 03:50:00,
2013-03-30 23:53:00,58.2,50.3,30.20,SW,222,0.0,0.0,75,0.00,CLR,SCT,0.00,WeatherDisplay:10.37,2013-03-31 03:53:00,
2013-03-30 23:54:00,58.3,50.4,30.19,SW,222,0.0,0.0,75,0.00,CLR,SCT,0.00,WeatherDisplay:10.37,2013-03-31 03:54:00,
2013-03-30 23:55:00,58.3,50.4,30.19,SW,222,0.0,0.0,75,0.00,CLR,SCT,0.00,WeatherDisplay:10.37,2013-03-31 03:55:00,
2013-03-30 23:58:00,58.3,50.0,30.19,SW,222,0.0,0.0,74,0.00,CLR,SCT,0.00,WeatherDisplay:10.37,2013-03-31 03:58:00,
2013-03-30 23:59:00,58.3,50.0,30.19,SW,222,0.0,0.0,74,0.00,CLR,SCT,0.00,WeatherDisplay:10.37,2013-03-31 03:59:00,